<?xml version="1.0" encoding="utf-8"?>
<gpx xmlns:xsi="http://www.w3.org/2001/XMLSchema-instance" xmlns:xsd="http://www.w3.org/2001/XMLSchema" xsi:schemaLocation="http://www.topografix.com/GPX/1/1 http://www.topografix.com/GPX/1/1/gpx.xsd" version="1.1" creator="QuoVadis 7.3.0.38" xmlns="http://www.topografix.com/GPX/1/1">
  <metadata>
    <link href="http://www.quovadis-gps.com">
      <text>QuoVadis Homepage</text>
    </link>
    <time>2017-11-24T18:58:28.9512672Z</time>
  </metadata>
  <trk>
    <name>03-505-00 Wittringer Wald</name>
    <cmt>Trail: 03-505-00 Wittringer Wald from C:\Users\willi\Downloads\03_Gladbeck-11.usr
Import Date: 14.05.2013 19:33:39
Imported from C:\Users\willi\Desktop\GPX Track Server\03_Gladbeck-11.gpx</cmt>
    <extensions>
      <gpxx:TrackExtension xsi:schemaLocation="http://www.garmin.com/xmlschemas/GpxExtensions/v3 http://www.garmin.com/xmlschemas/GpxExtensions/v3/GpxExtensionsv3.xsd" xmlns:gpxx="http://www.garmin.com/xmlschemas/GpxExtensions/v3">
        <gpxx:DisplayColor>Magenta</gpxx:DisplayColor>
      </gpxx:TrackExtension>
    </extensions>
    <trkseg>
      <trkpt lat="51.565905059482" lon="6.97064542466916">
        <ele>0</ele>
        <time>0001-01-01T00:00:00Z</time>
      </trkpt>
      <trkpt lat="51.5653951982397" lon="6.97093385261293">
        <ele>0</ele>
        <time>0001-01-01T00:00:00Z</time>
      </trkpt>
      <trkpt lat="51.5646724181101" lon="6.97133044103562">
        <ele>0</ele>
        <time>0001-01-01T00:00:00Z</time>
      </trkpt>
      <trkpt lat="51.5643474434548" lon="6.97151972187372">
        <ele>0</ele>
        <time>0001-01-01T00:00:00Z</time>
      </trkpt>
      <trkpt lat="51.5638431678399" lon="6.971790123071">
        <ele>0</ele>
        <time>0001-01-01T00:00:00Z</time>
      </trkpt>
      <trkpt lat="51.5635293935237" lon="6.9719794039091">
        <ele>0</ele>
        <time>0001-01-01T00:00:00Z</time>
      </trkpt>
      <trkpt lat="51.5634173307432" lon="6.9720424975218">
        <ele>0</ele>
        <time>0001-01-01T00:00:00Z</time>
      </trkpt>
      <trkpt lat="51.5633444897877" lon="6.97205151089504">
        <ele>0</ele>
        <time>0001-01-01T00:00:00Z</time>
      </trkpt>
      <trkpt lat="51.5627897740685" lon="6.97207855101477">
        <ele>0</ele>
        <time>0001-01-01T00:00:00Z</time>
      </trkpt>
      <trkpt lat="51.5622294482904" lon="6.97209657776126">
        <ele>0</ele>
        <time>0001-01-01T00:00:00Z</time>
      </trkpt>
      <trkpt lat="51.562128588917" lon="6.97199743065558">
        <ele>0</ele>
        <time>0001-01-01T00:00:00Z</time>
      </trkpt>
      <trkpt lat="51.5620725558352" lon="6.9718532166837">
        <ele>0</ele>
        <time>0001-01-01T00:00:00Z</time>
      </trkpt>
      <trkpt lat="51.5620109193654" lon="6.9716639358456">
        <ele>0</ele>
        <time>0001-01-01T00:00:00Z</time>
      </trkpt>
      <trkpt lat="51.5619548861386" lon="6.97155577536669">
        <ele>0</ele>
        <time>0001-01-01T00:00:00Z</time>
      </trkpt>
      <trkpt lat="51.5618484228174" lon="6.97150169512723">
        <ele>0</ele>
        <time>0001-01-01T00:00:00Z</time>
      </trkpt>
      <trkpt lat="51.5615290313583" lon="6.97151070850047">
        <ele>0</ele>
        <time>0001-01-01T00:00:00Z</time>
      </trkpt>
      <trkpt lat="51.5610079141618" lon="6.97148366838074">
        <ele>0</ele>
        <time>0001-01-01T00:00:00Z</time>
      </trkpt>
      <trkpt lat="51.5604251523745" lon="6.97146564163426">
        <ele>0</ele>
        <time>0001-01-01T00:00:00Z</time>
      </trkpt>
      <trkpt lat="51.5599096261068" lon="6.9714746550075">
        <ele>0</ele>
        <time>0001-01-01T00:00:00Z</time>
      </trkpt>
      <trkpt lat="51.5595790137943" lon="6.97146564163426">
        <ele>0</ele>
        <time>0001-01-01T00:00:00Z</time>
      </trkpt>
      <trkpt lat="51.5592147771081" lon="6.97146564163426">
        <ele>0</ele>
        <time>0001-01-01T00:00:00Z</time>
      </trkpt>
      <trkpt lat="51.5591083073719" lon="6.97145662826102">
        <ele>0</ele>
        <time>0001-01-01T00:00:00Z</time>
      </trkpt>
      <trkpt lat="51.5590354595141" lon="6.97143860151453">
        <ele>0</ele>
        <time>0001-01-01T00:00:00Z</time>
      </trkpt>
      <trkpt lat="51.5589514041485" lon="6.97136649452859">
        <ele>0</ele>
        <time>0001-01-01T00:00:00Z</time>
      </trkpt>
      <trkpt lat="51.5589065745566" lon="6.97125833404967">
        <ele>0</ele>
        <time>0001-01-01T00:00:00Z</time>
      </trkpt>
      <trkpt lat="51.5588897634483" lon="6.97102398634536">
        <ele>0</ele>
        <time>0001-01-01T00:00:00Z</time>
      </trkpt>
      <trkpt lat="51.5588897634483" lon="6.97088878574672">
        <ele>0</ele>
        <time>0001-01-01T00:00:00Z</time>
      </trkpt>
      <trkpt lat="51.5588449337957" lon="6.97077161189456">
        <ele>0</ele>
        <time>0001-01-01T00:00:00Z</time>
      </trkpt>
      <trkpt lat="51.5587216520232" lon="6.97071753165511">
        <ele>0</ele>
        <time>0001-01-01T00:00:00Z</time>
      </trkpt>
      <trkpt lat="51.5585535399767" lon="6.97072654502835">
        <ele>0</ele>
        <time>0001-01-01T00:00:00Z</time>
      </trkpt>
      <trkpt lat="51.5580716153327" lon="6.97073555840159">
        <ele>0</ele>
        <time>0001-01-01T00:00:00Z</time>
      </trkpt>
      <trkpt lat="51.5576177048934" lon="6.97073555840159">
        <ele>0</ele>
        <time>0001-01-01T00:00:00Z</time>
      </trkpt>
      <trkpt lat="51.5574327771194" lon="6.97075358514808">
        <ele>0</ele>
        <time>0001-01-01T00:00:00Z</time>
      </trkpt>
      <trkpt lat="51.5571413742525" lon="6.97072654502835">
        <ele>0</ele>
        <time>0001-01-01T00:00:00Z</time>
      </trkpt>
      <trkpt lat="51.5567490982142" lon="6.97067246478889">
        <ele>0</ele>
        <time>0001-01-01T00:00:00Z</time>
      </trkpt>
      <trkpt lat="51.5563400067418" lon="6.97065443804241">
        <ele>0</ele>
        <time>0001-01-01T00:00:00Z</time>
      </trkpt>
      <trkpt lat="51.5560485968735" lon="6.97065443804241">
        <ele>0</ele>
        <time>0001-01-01T00:00:00Z</time>
      </trkpt>
      <trkpt lat="51.5557683933164" lon="6.97066345141565">
        <ele>0</ele>
        <time>0001-01-01T00:00:00Z</time>
      </trkpt>
      <trkpt lat="51.5556899360111" lon="6.97029390311269">
        <ele>0</ele>
        <time>0001-01-01T00:00:00Z</time>
      </trkpt>
      <trkpt lat="51.555589062134" lon="6.9698522478238">
        <ele>0</ele>
        <time>0001-01-01T00:00:00Z</time>
      </trkpt>
      <trkpt lat="51.5553817095729" lon="6.96901400411222">
        <ele>0</ele>
        <time>0001-01-01T00:00:00Z</time>
      </trkpt>
      <trkpt lat="51.5552303976479" lon="6.96831096099928">
        <ele>0</ele>
        <time>0001-01-01T00:00:00Z</time>
      </trkpt>
      <trkpt lat="51.5550174392712" lon="6.96749975740742">
        <ele>0</ele>
        <time>0001-01-01T00:00:00Z</time>
      </trkpt>
      <trkpt lat="51.5549333764796" lon="6.96718428934393">
        <ele>0</ele>
        <time>0001-01-01T00:00:00Z</time>
      </trkpt>
      <trkpt lat="51.5548437093306" lon="6.96686882128043">
        <ele>0</ele>
        <time>0001-01-01T00:00:00Z</time>
      </trkpt>
      <trkpt lat="51.5547932714817" lon="6.96666151369584">
        <ele>0</ele>
        <time>0001-01-01T00:00:00Z</time>
      </trkpt>
      <trkpt lat="51.5547820630632" lon="6.96648124623099">
        <ele>0</ele>
        <time>0001-01-01T00:00:00Z</time>
      </trkpt>
      <trkpt lat="51.5548268967205" lon="6.96629196539289">
        <ele>0</ele>
        <time>0001-01-01T00:00:00Z</time>
      </trkpt>
      <trkpt lat="51.5547148124943" lon="6.966147751421">
        <ele>0</ele>
        <time>0001-01-01T00:00:00Z</time>
      </trkpt>
      <trkpt lat="51.5546699787265" lon="6.9660215641956">
        <ele>0</ele>
        <time>0001-01-01T00:00:00Z</time>
      </trkpt>
      <trkpt lat="51.5546139364546" lon="6.96577820311805">
        <ele>0</ele>
        <time>0001-01-01T00:00:00Z</time>
      </trkpt>
      <trkpt lat="51.5545859152928" lon="6.96552582866725">
        <ele>0</ele>
        <time>0001-01-01T00:00:00Z</time>
      </trkpt>
      <trkpt lat="51.5545803110583" lon="6.96507516000511">
        <ele>0</ele>
        <time>0001-01-01T00:00:00Z</time>
      </trkpt>
      <trkpt lat="51.5545971237596" lon="6.96476870531485">
        <ele>0</ele>
        <time>0001-01-01T00:00:00Z</time>
      </trkpt>
      <trkpt lat="51.5546083322236" lon="6.96449830411757">
        <ele>0</ele>
        <time>0001-01-01T00:00:00Z</time>
      </trkpt>
      <trkpt lat="51.554647561826" lon="6.96401158196246">
        <ele>0</ele>
        <time>0001-01-01T00:00:00Z</time>
      </trkpt>
      <trkpt lat="51.5546643745024" lon="6.9636420336595">
        <ele>0</ele>
        <time>0001-01-01T00:00:00Z</time>
      </trkpt>
      <trkpt lat="51.5546755829499" lon="6.96348880631438">
        <ele>0</ele>
        <time>0001-01-01T00:00:00Z</time>
      </trkpt>
      <trkpt lat="51.5547204167122" lon="6.96336261908898">
        <ele>0</ele>
        <time>0001-01-01T00:00:00Z</time>
      </trkpt>
      <trkpt lat="51.5547932714817" lon="6.96328149872979">
        <ele>0</ele>
        <time>0001-01-01T00:00:00Z</time>
      </trkpt>
      <trkpt lat="51.5549109597089" lon="6.96324544523682">
        <ele>0</ele>
        <time>0001-01-01T00:00:00Z</time>
      </trkpt>
      <trkpt lat="51.5551015019074" lon="6.96323643186358">
        <ele>0</ele>
        <time>0001-01-01T00:00:00Z</time>
      </trkpt>
      <trkpt lat="51.5552472101089" lon="6.96324544523682">
        <ele>0</ele>
        <time>0001-01-01T00:00:00Z</time>
      </trkpt>
      <trkpt lat="51.5554265426391" lon="6.96326347198331">
        <ele>0</ele>
        <time>0001-01-01T00:00:00Z</time>
      </trkpt>
      <trkpt lat="51.5556002703536" lon="6.96336261908898">
        <ele>0</ele>
        <time>0001-01-01T00:00:00Z</time>
      </trkpt>
      <trkpt lat="51.5557515810481" lon="6.96349781968762">
        <ele>0</ele>
        <time>0001-01-01T00:00:00Z</time>
      </trkpt>
      <trkpt lat="51.5558636627195" lon="6.96362400691302">
        <ele>0</ele>
        <time>0001-01-01T00:00:00Z</time>
      </trkpt>
      <trkpt lat="51.5559421197252" lon="6.96366907377923">
        <ele>0</ele>
        <time>0001-01-01T00:00:00Z</time>
      </trkpt>
      <trkpt lat="51.5559813481773" lon="6.96354288655383">
        <ele>0</ele>
        <time>0001-01-01T00:00:00Z</time>
      </trkpt>
      <trkpt lat="51.5560654090321" lon="6.96290293705359">
        <ele>0</ele>
        <time>0001-01-01T00:00:00Z</time>
      </trkpt>
      <trkpt lat="51.5561046373778" lon="6.96235312128578">
        <ele>0</ele>
        <time>0001-01-01T00:00:00Z</time>
      </trkpt>
      <trkpt lat="51.5561158454704" lon="6.96169514503906">
        <ele>0</ele>
        <time>0001-01-01T00:00:00Z</time>
      </trkpt>
      <trkpt lat="51.5561550737726" lon="6.96123546300367">
        <ele>0</ele>
        <time>0001-01-01T00:00:00Z</time>
      </trkpt>
      <trkpt lat="51.5562839665275" lon="6.96085690132748">
        <ele>0</ele>
        <time>0001-01-01T00:00:00Z</time>
      </trkpt>
      <trkpt lat="51.5564632949701" lon="6.96033412567939">
        <ele>0</ele>
        <time>0001-01-01T00:00:00Z</time>
      </trkpt>
      <trkpt lat="51.5567266823384" lon="6.9598293767778">
        <ele>0</ele>
        <time>0001-01-01T00:00:00Z</time>
      </trkpt>
      <trkpt lat="51.5568555734734" lon="6.95944180172836">
        <ele>0</ele>
        <time>0001-01-01T00:00:00Z</time>
      </trkpt>
      <trkpt lat="51.5569508405993" lon="6.95917140053107">
        <ele>0</ele>
        <time>0001-01-01T00:00:00Z</time>
      </trkpt>
      <trkpt lat="51.5571077507247" lon="6.95863961150975">
        <ele>0</ele>
        <time>0001-01-01T00:00:00Z</time>
      </trkpt>
      <trkpt lat="51.5572030173224" lon="6.95839625043219">
        <ele>0</ele>
        <time>0001-01-01T00:00:00Z</time>
      </trkpt>
      <trkpt lat="51.5572646603087" lon="6.95801768875599">
        <ele>0</ele>
        <time>0001-01-01T00:00:00Z</time>
      </trkpt>
      <trkpt lat="51.5573206993146" lon="6.95774728755871">
        <ele>0</ele>
        <time>0001-01-01T00:00:00Z</time>
      </trkpt>
      <trkpt lat="51.5573823421414" lon="6.95753096660088">
        <ele>0</ele>
        <time>0001-01-01T00:00:00Z</time>
      </trkpt>
      <trkpt lat="51.5575336469075" lon="6.95726957877684">
        <ele>0</ele>
        <time>0001-01-01T00:00:00Z</time>
      </trkpt>
      <trkpt lat="51.5577465935034" lon="6.95706227119226">
        <ele>0</ele>
        <time>0001-01-01T00:00:00Z</time>
      </trkpt>
      <trkpt lat="51.5578362549297" lon="6.95689101710064">
        <ele>0</ele>
        <time>0001-01-01T00:00:00Z</time>
      </trkpt>
      <trkpt lat="51.5579035008834" lon="6.95654850891741">
        <ele>0</ele>
        <time>0001-01-01T00:00:00Z</time>
      </trkpt>
      <trkpt lat="51.557937123823" lon="6.95629613446662">
        <ele>0</ele>
        <time>0001-01-01T00:00:00Z</time>
      </trkpt>
      <trkpt lat="51.5579707467377" lon="6.95611586700176">
        <ele>0</ele>
        <time>0001-01-01T00:00:00Z</time>
      </trkpt>
      <trkpt lat="51.5580548039158" lon="6.95589954604393">
        <ele>0</ele>
        <time>0001-01-01T00:00:00Z</time>
      </trkpt>
      <trkpt lat="51.5581444647344" lon="6.95567421171286">
        <ele>0</ele>
        <time>0001-01-01T00:00:00Z</time>
      </trkpt>
      <trkpt lat="51.5583798235425" lon="6.95580941231151">
        <ele>0</ele>
        <time>0001-01-01T00:00:00Z</time>
      </trkpt>
      <trkpt lat="51.5587328594709" lon="6.95604376001582">
        <ele>0</ele>
        <time>0001-01-01T00:00:00Z</time>
      </trkpt>
      <trkpt lat="51.5587832929512" lon="6.95586349255096">
        <ele>0</ele>
        <time>0001-01-01T00:00:00Z</time>
      </trkpt>
      <trkpt lat="51.5588673486275" lon="6.95555703786071">
        <ele>0</ele>
        <time>0001-01-01T00:00:00Z</time>
      </trkpt>
      <trkpt lat="51.558912178258" lon="6.95532269015639">
        <ele>0</ele>
        <time>0001-01-01T00:00:00Z</time>
      </trkpt>
      <trkpt lat="51.5590354595141" lon="6.95479090113507">
        <ele>0</ele>
        <time>0001-01-01T00:00:00Z</time>
      </trkpt>
      <trkpt lat="51.5593828867104" lon="6.95504327558587">
        <ele>0</ele>
        <time>0001-01-01T00:00:00Z</time>
      </trkpt>
      <trkpt lat="51.5597471220502" lon="6.95529565003666">
        <ele>0</ele>
        <time>0001-01-01T00:00:00Z</time>
      </trkpt>
      <trkpt lat="51.5601281651295" lon="6.95555703786071">
        <ele>0</ele>
        <time>0001-01-01T00:00:00Z</time>
      </trkpt>
      <trkpt lat="51.5603803242354" lon="6.95567421171286">
        <ele>0</ele>
        <time>0001-01-01T00:00:00Z</time>
      </trkpt>
      <trkpt lat="51.5605764470178" lon="6.95572829195232">
        <ele>0</ele>
        <time>0001-01-01T00:00:00Z</time>
      </trkpt>
      <trkpt lat="51.5606661028652" lon="6.95573730532556">
        <ele>0</ele>
        <time>0001-01-01T00:00:00Z</time>
      </trkpt>
      <trkpt lat="51.5607221376801" lon="6.95573730532556">
        <ele>0</ele>
        <time>0001-01-01T00:00:00Z</time>
      </trkpt>
      <trkpt lat="51.5609014486236" lon="6.95572829195232">
        <ele>0</ele>
        <time>0001-01-01T00:00:00Z</time>
      </trkpt>
      <trkpt lat="51.5609518796991" lon="6.95536775702261">
        <ele>0</ele>
        <time>0001-01-01T00:00:00Z</time>
      </trkpt>
      <trkpt lat="51.5610415348063" lon="6.95468274065615">
        <ele>0</ele>
        <time>0001-01-01T00:00:00Z</time>
      </trkpt>
      <trkpt lat="51.5610583451193" lon="6.95445740632508">
        <ele>0</ele>
        <time>0001-01-01T00:00:00Z</time>
      </trkpt>
      <trkpt lat="51.5610583451193" lon="6.95409687139537">
        <ele>0</ele>
        <time>0001-01-01T00:00:00Z</time>
      </trkpt>
      <trkpt lat="51.5610639485555" lon="6.9534298817754">
        <ele>0</ele>
        <time>0001-01-01T00:00:00Z</time>
      </trkpt>
      <trkpt lat="51.5610639485555" lon="6.95286203926111">
        <ele>0</ele>
        <time>0001-01-01T00:00:00Z</time>
      </trkpt>
      <trkpt lat="51.5610695519911" lon="6.95238433047924">
        <ele>0</ele>
        <time>0001-01-01T00:00:00Z</time>
      </trkpt>
      <trkpt lat="51.5616467021569" lon="6.95205083566925">
        <ele>0</ele>
        <time>0001-01-01T00:00:00Z</time>
      </trkpt>
      <trkpt lat="51.5627225353397" lon="6.95162720712684">
        <ele>0</ele>
        <time>0001-01-01T00:00:00Z</time>
      </trkpt>
      <trkpt lat="51.5629354576399" lon="6.95156411351414">
        <ele>0</ele>
        <time>0001-01-01T00:00:00Z</time>
      </trkpt>
      <trkpt lat="51.5630643311794" lon="6.95151904664793">
        <ele>0</ele>
        <time>0001-01-01T00:00:00Z</time>
      </trkpt>
      <trkpt lat="51.5632884582041" lon="6.95129371231686">
        <ele>0</ele>
        <time>0001-01-01T00:00:00Z</time>
      </trkpt>
      <trkpt lat="51.5634621558885" lon="6.95096021750688">
        <ele>0</ele>
        <time>0001-01-01T00:00:00Z</time>
      </trkpt>
      <trkpt lat="51.5635798216848" lon="6.95075290992229">
        <ele>0</ele>
        <time>0001-01-01T00:00:00Z</time>
      </trkpt>
      <trkpt lat="51.5636750747255" lon="6.95051856221798">
        <ele>0</ele>
        <time>0001-01-01T00:00:00Z</time>
      </trkpt>
      <trkpt lat="51.5636806778393" lon="6.95004986680935">
        <ele>0</ele>
        <time>0001-01-01T00:00:00Z</time>
      </trkpt>
      <trkpt lat="51.5638375647461" lon="6.94989663946422">
        <ele>0</ele>
        <time>0001-01-01T00:00:00Z</time>
      </trkpt>
      <trkpt lat="51.5641569399909" lon="6.9497434121191">
        <ele>0</ele>
        <time>0001-01-01T00:00:00Z</time>
      </trkpt>
      <trkpt lat="51.5646500061394" lon="6.94959919814721">
        <ele>0</ele>
        <time>0001-01-01T00:00:00Z</time>
      </trkpt>
      <trkpt lat="51.5649861845388" lon="6.94948202429506">
        <ele>0</ele>
        <time>0001-01-01T00:00:00Z</time>
      </trkpt>
      <trkpt lat="51.5653223604526" lon="6.94931077020344">
        <ele>0</ele>
        <time>0001-01-01T00:00:00Z</time>
      </trkpt>
      <trkpt lat="51.5654736388029" lon="6.94903135563291">
        <ele>0</ele>
        <time>0001-01-01T00:00:00Z</time>
      </trkpt>
      <trkpt lat="51.5657649882817" lon="6.94896826202022">
        <ele>0</ele>
        <time>0001-01-01T00:00:00Z</time>
      </trkpt>
      <trkpt lat="51.5661683921703" lon="6.94963525164018">
        <ele>0</ele>
        <time>0001-01-01T00:00:00Z</time>
      </trkpt>
      <trkpt lat="51.5664709427379" lon="6.95008592030232">
        <ele>0</ele>
        <time>0001-01-01T00:00:00Z</time>
      </trkpt>
      <trkpt lat="51.5667342721488" lon="6.95049152209825">
        <ele>0</ele>
        <time>0001-01-01T00:00:00Z</time>
      </trkpt>
      <trkpt lat="51.5668519294778" lon="6.95068080293635">
        <ele>0</ele>
        <time>0001-01-01T00:00:00Z</time>
      </trkpt>
      <trkpt lat="51.567003202739" lon="6.95091515064066">
        <ele>0</ele>
        <time>0001-01-01T00:00:00Z</time>
      </trkpt>
      <trkpt lat="51.567003202739" lon="6.95091515064066">
        <ele>0</ele>
        <time>0001-01-01T00:00:00Z</time>
      </trkpt>
      <trkpt lat="51.5672665290672" lon="6.95132976580983">
        <ele>0</ele>
        <time>0001-01-01T00:00:00Z</time>
      </trkpt>
      <trkpt lat="51.5674850327349" lon="6.95157312688739">
        <ele>0</ele>
        <time>0001-01-01T00:00:00Z</time>
      </trkpt>
      <trkpt lat="51.5676643170113" lon="6.95170832748603">
        <ele>0</ele>
        <time>0001-01-01T00:00:00Z</time>
      </trkpt>
      <trkpt lat="51.5678828187672" lon="6.95184352808467">
        <ele>0</ele>
        <time>0001-01-01T00:00:00Z</time>
      </trkpt>
      <trkpt lat="51.5685159076693" lon="6.95196070193683">
        <ele>0</ele>
        <time>0001-01-01T00:00:00Z</time>
      </trkpt>
      <trkpt lat="51.5688520574854" lon="6.95203280892277">
        <ele>0</ele>
        <time>0001-01-01T00:00:00Z</time>
      </trkpt>
      <trkpt lat="51.5690425412779" lon="6.9520598490425">
        <ele>0</ele>
        <time>0001-01-01T00:00:00Z</time>
      </trkpt>
      <trkpt lat="51.5690985657709" lon="6.95195168856358">
        <ele>0</ele>
        <time>0001-01-01T00:00:00Z</time>
      </trkpt>
      <trkpt lat="51.5691377828749" lon="6.95173536760576">
        <ele>0</ele>
        <time>0001-01-01T00:00:00Z</time>
      </trkpt>
      <trkpt lat="51.5691153731054" lon="6.95151904664793">
        <ele>0</ele>
        <time>0001-01-01T00:00:00Z</time>
      </trkpt>
      <trkpt lat="51.5689529019456" lon="6.95053658896446">
        <ele>0</ele>
        <time>0001-01-01T00:00:00Z</time>
      </trkpt>
      <trkpt lat="51.568784827721" lon="6.94940991730911">
        <ele>0</ele>
        <time>0001-01-01T00:00:00Z</time>
      </trkpt>
      <trkpt lat="51.5683478318292" lon="6.94683209256167">
        <ele>0</ele>
        <time>0001-01-01T00:00:00Z</time>
      </trkpt>
      <trkpt lat="51.568062101475" lon="6.94529080573715">
        <ele>0</ele>
        <time>0001-01-01T00:00:00Z</time>
      </trkpt>
      <trkpt lat="51.5678772161712" lon="6.94448861551854">
        <ele>0</ele>
        <time>0001-01-01T00:00:00Z</time>
      </trkpt>
      <trkpt lat="51.567765164106" lon="6.94398386661694">
        <ele>0</ele>
        <time>0001-01-01T00:00:00Z</time>
      </trkpt>
      <trkpt lat="51.567602688121" lon="6.94356023807453">
        <ele>0</ele>
        <time>0001-01-01T00:00:00Z</time>
      </trkpt>
      <trkpt lat="51.567311350418" lon="6.94310055603915">
        <ele>0</ele>
        <time>0001-01-01T00:00:00Z</time>
      </trkpt>
      <trkpt lat="51.5670928459156" lon="6.94283015484186">
        <ele>0</ele>
        <time>0001-01-01T00:00:00Z</time>
      </trkpt>
      <trkpt lat="51.5669359702406" lon="6.94272199436295">
        <ele>0</ele>
        <time>0001-01-01T00:00:00Z</time>
      </trkpt>
      <trkpt lat="51.5667006557132" lon="6.94263186063052">
        <ele>0</ele>
        <time>0001-01-01T00:00:00Z</time>
      </trkpt>
      <trkpt lat="51.5665829979928" lon="6.94252370015161">
        <ele>0</ele>
        <time>0001-01-01T00:00:00Z</time>
      </trkpt>
      <trkpt lat="51.5662020089995" lon="6.94196487101055">
        <ele>0</ele>
        <time>0001-01-01T00:00:00Z</time>
      </trkpt>
      <trkpt lat="51.5661067612523" lon="6.94171249655976">
        <ele>0</ele>
        <time>0001-01-01T00:00:00Z</time>
      </trkpt>
      <trkpt lat="51.5660843499887" lon="6.94143308198923">
        <ele>0</ele>
        <time>0001-01-01T00:00:00Z</time>
      </trkpt>
      <trkpt lat="51.5660843499887" lon="6.9410274801933">
        <ele>0</ele>
        <time>0001-01-01T00:00:00Z</time>
      </trkpt>
      <trkpt lat="51.566140378127" lon="6.94036049057334">
        <ele>0</ele>
        <time>0001-01-01T00:00:00Z</time>
      </trkpt>
      <trkpt lat="51.5661347753163" lon="6.93996390215065">
        <ele>0</ele>
        <time>0001-01-01T00:00:00Z</time>
      </trkpt>
      <trkpt lat="51.5661291725049" lon="6.9397836346858">
        <ele>0</ele>
        <time>0001-01-01T00:00:00Z</time>
      </trkpt>
      <trkpt lat="51.566061938714" lon="6.93911664506583">
        <ele>0</ele>
        <time>0001-01-01T00:00:00Z</time>
      </trkpt>
      <trkpt lat="51.5660339246051" lon="6.9388372304953">
        <ele>0</ele>
        <time>0001-01-01T00:00:00Z</time>
      </trkpt>
      <trkpt lat="51.5661067612523" lon="6.93848570893883">
        <ele>0</ele>
        <time>0001-01-01T00:00:00Z</time>
      </trkpt>
      <trkpt lat="51.5661795977828" lon="6.93814320075561">
        <ele>0</ele>
        <time>0001-01-01T00:00:00Z</time>
      </trkpt>
      <trkpt lat="51.5663532844231" lon="6.93753930474834">
        <ele>0</ele>
        <time>0001-01-01T00:00:00Z</time>
      </trkpt>
      <trkpt lat="51.5661067612523" lon="6.93718778319187">
        <ele>0</ele>
        <time>0001-01-01T00:00:00Z</time>
      </trkpt>
      <trkpt lat="51.5658546338996" lon="6.93672810115648">
        <ele>0</ele>
        <time>0001-01-01T00:00:00Z</time>
      </trkpt>
      <trkpt lat="51.5656193137757" lon="6.93631348598732">
        <ele>0</ele>
        <time>0001-01-01T00:00:00Z</time>
      </trkpt>
      <trkpt lat="51.5652943458881" lon="6.93569156323356">
        <ele>0</ele>
        <time>0001-01-01T00:00:00Z</time>
      </trkpt>
      <trkpt lat="51.5651430669412" lon="6.93539412191655">
        <ele>0</ele>
        <time>0001-01-01T00:00:00Z</time>
      </trkpt>
      <trkpt lat="51.5648797283146" lon="6.93509668059954">
        <ele>0</ele>
        <time>0001-01-01T00:00:00Z</time>
      </trkpt>
      <trkpt lat="51.5646163881628" lon="6.9348352927755">
        <ele>0</ele>
        <time>0001-01-01T00:00:00Z</time>
      </trkpt>
      <trkpt lat="51.5641849552563" lon="6.93441166423308">
        <ele>0</ele>
        <time>0001-01-01T00:00:00Z</time>
      </trkpt>
      <trkpt lat="51.563669471611" lon="6.9340150758104">
        <ele>0</ele>
        <time>0001-01-01T00:00:00Z</time>
      </trkpt>
      <trkpt lat="51.5635293935237" lon="6.93387086183852">
        <ele>0</ele>
        <time>0001-01-01T00:00:00Z</time>
      </trkpt>
      <trkpt lat="51.5637198996168" lon="6.93320387221855">
        <ele>0</ele>
        <time>0001-01-01T00:00:00Z</time>
      </trkpt>
      <trkpt lat="51.5639272141641" lon="6.93245576223939">
        <ele>0</ele>
        <time>0001-01-01T00:00:00Z</time>
      </trkpt>
      <trkpt lat="51.5644258858256" lon="6.93065308759083">
        <ele>0</ele>
        <time>0001-01-01T00:00:00Z</time>
      </trkpt>
      <trkpt lat="51.5644595039431" lon="6.93054492711192">
        <ele>0</ele>
        <time>0001-01-01T00:00:00Z</time>
      </trkpt>
      <trkpt lat="51.5646051821651" lon="6.9305629538584">
        <ele>0</ele>
        <time>0001-01-01T00:00:00Z</time>
      </trkpt>
      <trkpt lat="51.5648685223817" lon="6.93058098060489">
        <ele>0</ele>
        <time>0001-01-01T00:00:00Z</time>
      </trkpt>
      <trkpt lat="51.5651654786688" lon="6.93059900735138">
        <ele>0</ele>
        <time>0001-01-01T00:00:00Z</time>
      </trkpt>
      <trkpt lat="51.5653111546289" lon="6.93059900735138">
        <ele>0</ele>
        <time>0001-01-01T00:00:00Z</time>
      </trkpt>
      <trkpt lat="51.5655576821134" lon="6.93050887361895">
        <ele>0</ele>
        <time>0001-01-01T00:00:00Z</time>
      </trkpt>
      <trkpt lat="51.5657761939936" lon="6.93041873988652">
        <ele>0</ele>
        <time>0001-01-01T00:00:00Z</time>
      </trkpt>
      <trkpt lat="51.5659442793407" lon="6.93040972651328">
        <ele>0</ele>
        <time>0001-01-01T00:00:00Z</time>
      </trkpt>
      <trkpt lat="51.5661067612523" lon="6.93045479337949">
        <ele>0</ele>
        <time>0001-01-01T00:00:00Z</time>
      </trkpt>
      <trkpt lat="51.5662748453774" lon="6.93057196723165">
        <ele>0</ele>
        <time>0001-01-01T00:00:00Z</time>
      </trkpt>
      <trkpt lat="51.5664261205587" lon="6.93079730156272">
        <ele>0</ele>
        <time>0001-01-01T00:00:00Z</time>
      </trkpt>
      <trkpt lat="51.5665493814454" lon="6.93096855565433">
        <ele>0</ele>
        <time>0001-01-01T00:00:00Z</time>
      </trkpt>
      <trkpt lat="51.5667398748857" lon="6.93112178299946">
        <ele>0</ele>
        <time>0001-01-01T00:00:00Z</time>
      </trkpt>
      <trkpt lat="51.5668911485197" lon="6.93117586323892">
        <ele>0</ele>
        <time>0001-01-01T00:00:00Z</time>
      </trkpt>
      <trkpt lat="51.5672889397481" lon="6.9312569835981">
        <ele>0</ele>
        <time>0001-01-01T00:00:00Z</time>
      </trkpt>
      <trkpt lat="51.5675970854905" lon="6.93132909058404">
        <ele>0</ele>
        <time>0001-01-01T00:00:00Z</time>
      </trkpt>
      <trkpt lat="51.5679276395104" lon="6.93141922431647">
        <ele>0</ele>
        <time>0001-01-01T00:00:00Z</time>
      </trkpt>
      <trkpt lat="51.5682862038655" lon="6.9315093580489">
        <ele>0</ele>
        <time>0001-01-01T00:00:00Z</time>
      </trkpt>
      <trkpt lat="51.5683478318292" lon="6.93159949178133">
        <ele>0</ele>
        <time>0001-01-01T00:00:00Z</time>
      </trkpt>
      <trkpt lat="51.5684094597094" lon="6.931698638887">
        <ele>0</ele>
        <time>0001-01-01T00:00:00Z</time>
      </trkpt>
      <trkpt lat="51.5685327152191" lon="6.93177975924618">
        <ele>0</ele>
        <time>0001-01-01T00:00:00Z</time>
      </trkpt>
      <trkpt lat="51.5690593486331" lon="6.93190594647158">
        <ele>0</ele>
        <time>0001-01-01T00:00:00Z</time>
      </trkpt>
      <trkpt lat="51.5696419997699" lon="6.93203213369698">
        <ele>0</ele>
        <time>0001-01-01T00:00:00Z</time>
      </trkpt>
      <trkpt lat="51.5702694618739" lon="6.93219437441535">
        <ele>0</ele>
        <time>0001-01-01T00:00:00Z</time>
      </trkpt>
      <trkpt lat="51.5710873905423" lon="6.93237464188021">
        <ele>0</ele>
        <time>0001-01-01T00:00:00Z</time>
      </trkpt>
      <trkpt lat="51.571759649662" lon="6.93250082910561">
        <ele>0</ele>
        <time>0001-01-01T00:00:00Z</time>
      </trkpt>
      <trkpt lat="51.5719893359159" lon="6.93252786922534">
        <ele>0</ele>
        <time>0001-01-01T00:00:00Z</time>
      </trkpt>
      <trkpt lat="51.572751213717" lon="6.93281629716911">
        <ele>0</ele>
        <time>0001-01-01T00:00:00Z</time>
      </trkpt>
      <trkpt lat="51.5732665944006" lon="6.93314979197909">
        <ele>0</ele>
        <time>0001-01-01T00:00:00Z</time>
      </trkpt>
      <trkpt lat="51.5734346520558" lon="6.93323992571152">
        <ele>0</ele>
        <time>0001-01-01T00:00:00Z</time>
      </trkpt>
      <trkpt lat="51.5734906711361" lon="6.9338257949723">
        <ele>0</ele>
        <time>0001-01-01T00:00:00Z</time>
      </trkpt>
      <trkpt lat="51.5735018749439" lon="6.93435758399363">
        <ele>0</ele>
        <time>0001-01-01T00:00:00Z</time>
      </trkpt>
      <trkpt lat="51.5736419223081" lon="6.93473614566982">
        <ele>0</ele>
        <time>0001-01-01T00:00:00Z</time>
      </trkpt>
      <trkpt lat="51.5737091448896" lon="6.93488937301495">
        <ele>0</ele>
        <time>0001-01-01T00:00:00Z</time>
      </trkpt>
      <trkpt lat="51.5737035430116" lon="6.93509668059954">
        <ele>0</ele>
        <time>0001-01-01T00:00:00Z</time>
      </trkpt>
      <trkpt lat="51.5739612286851" lon="6.93542116203628">
        <ele>0</ele>
        <time>0001-01-01T00:00:00Z</time>
      </trkpt>
      <trkpt lat="51.5744653920819" lon="6.9357636702195">
        <ele>0</ele>
        <time>0001-01-01T00:00:00Z</time>
      </trkpt>
      <trkpt lat="51.5750087619261" lon="6.93628644586759">
        <ele>0</ele>
        <time>0001-01-01T00:00:00Z</time>
      </trkpt>
      <trkpt lat="51.5751992199216" lon="6.93627743249434">
        <ele>0</ele>
        <time>0001-01-01T00:00:00Z</time>
      </trkpt>
      <trkpt lat="51.575440092126" lon="6.93618729876192">
        <ele>0</ele>
        <time>0001-01-01T00:00:00Z</time>
      </trkpt>
      <trkpt lat="51.5756585565098" lon="6.93587183069842">
        <ele>0</ele>
        <time>0001-01-01T00:00:00Z</time>
      </trkpt>
      <trkpt lat="51.5758154020865" lon="6.93560142950113">
        <ele>0</ele>
        <time>0001-01-01T00:00:00Z</time>
      </trkpt>
      <trkpt lat="51.5758490117826" lon="6.93549326902222">
        <ele>0</ele>
        <time>0001-01-01T00:00:00Z</time>
      </trkpt>
      <trkpt lat="51.5760002551071" lon="6.93542116203628">
        <ele>0</ele>
        <time>0001-01-01T00:00:00Z</time>
      </trkpt>
      <trkpt lat="51.5770141325466" lon="6.93597999117733">
        <ele>0</ele>
        <time>0001-01-01T00:00:00Z</time>
      </trkpt>
      <trkpt lat="51.577518262081" lon="6.93627743249434">
        <ele>0</ele>
        <time>0001-01-01T00:00:00Z</time>
      </trkpt>
      <trkpt lat="51.5779831765841" lon="6.93586281732517">
        <ele>0</ele>
        <time>0001-01-01T00:00:00Z</time>
      </trkpt>
      <trkpt lat="51.5781344128069" lon="6.93618729876192">
        <ele>0</ele>
        <time>0001-01-01T00:00:00Z</time>
      </trkpt>
      <trkpt lat="51.5785545107852" lon="6.93720580993835">
        <ele>0</ele>
        <time>0001-01-01T00:00:00Z</time>
      </trkpt>
      <trkpt lat="51.5786945425817" lon="6.93754831812158">
        <ele>0</ele>
        <time>0001-01-01T00:00:00Z</time>
      </trkpt>
      <trkpt lat="51.5788457764373" lon="6.93889131073476">
        <ele>0</ele>
        <time>0001-01-01T00:00:00Z</time>
      </trkpt>
      <trkpt lat="51.5789129913227" lon="6.93899045784043">
        <ele>0</ele>
        <time>0001-01-01T00:00:00Z</time>
      </trkpt>
      <trkpt lat="51.5792154570768" lon="6.93926987241096">
        <ele>0</ele>
        <time>0001-01-01T00:00:00Z</time>
      </trkpt>
      <trkpt lat="51.5801508476881" lon="6.94035147720009">
        <ele>0</ele>
        <time>0001-01-01T00:00:00Z</time>
      </trkpt>
      <trkpt lat="51.5805541239281" lon="6.94100044007357">
        <ele>0</ele>
        <time>0001-01-01T00:00:00Z</time>
      </trkpt>
      <trkpt lat="51.580766962723" lon="6.94139702849626">
        <ele>0</ele>
        <time>0001-01-01T00:00:00Z</time>
      </trkpt>
      <trkpt lat="51.5807613617149" lon="6.94152321572166">
        <ele>0</ele>
        <time>0001-01-01T00:00:00Z</time>
      </trkpt>
      <trkpt lat="51.5806549424289" lon="6.94173052330624">
        <ele>0</ele>
        <time>0001-01-01T00:00:00Z</time>
      </trkpt>
      <trkpt lat="51.5804477041568" lon="6.94217217859514">
        <ele>0</ele>
        <time>0001-01-01T00:00:00Z</time>
      </trkpt>
      <trkpt lat="51.5802796724315" lon="6.94264988737701">
        <ele>0</ele>
        <time>0001-01-01T00:00:00Z</time>
      </trkpt>
      <trkpt lat="51.5802012574138" lon="6.94302844905321">
        <ele>0</ele>
        <time>0001-01-01T00:00:00Z</time>
      </trkpt>
      <trkpt lat="51.5801732520175" lon="6.943280823504">
        <ele>0</ele>
        <time>0001-01-01T00:00:00Z</time>
      </trkpt>
      <trkpt lat="51.5802236617184" lon="6.94373149216614">
        <ele>0</ele>
        <time>0001-01-01T00:00:00Z</time>
      </trkpt>
      <trkpt lat="51.5803748904854" lon="6.94461480274394">
        <ele>0</ele>
        <time>0001-01-01T00:00:00Z</time>
      </trkpt>
      <trkpt lat="51.5805989321783" lon="6.94568739415983">
        <ele>0</ele>
        <time>0001-01-01T00:00:00Z</time>
      </trkpt>
      <trkpt lat="51.5806493414069" lon="6.9459758221036">
        <ele>0</ele>
        <time>0001-01-01T00:00:00Z</time>
      </trkpt>
      <trkpt lat="51.5807165536249" lon="6.94642649076574">
        <ele>0</ele>
        <time>0001-01-01T00:00:00Z</time>
      </trkpt>
      <trkpt lat="51.5807725637305" lon="6.94695827978707">
        <ele>0</ele>
        <time>0001-01-01T00:00:00Z</time>
      </trkpt>
      <trkpt lat="51.5807949677534" lon="6.94758020254082">
        <ele>0</ele>
        <time>0001-01-01T00:00:00Z</time>
      </trkpt>
      <trkpt lat="51.5807837657433" lon="6.94837337938619">
        <ele>0</ele>
        <time>0001-01-01T00:00:00Z</time>
      </trkpt>
      <trkpt lat="51.5808285737671" lon="6.94883306142157">
        <ele>0</ele>
        <time>0001-01-01T00:00:00Z</time>
      </trkpt>
      <trkpt lat="51.5808453767646" lon="6.94913050273859">
        <ele>0</ele>
        <time>0001-01-01T00:00:00Z</time>
      </trkpt>
      <trkpt lat="51.5808677807517" lon="6.94950906441478">
        <ele>0</ele>
        <time>0001-01-01T00:00:00Z</time>
      </trkpt>
      <trkpt lat="51.5809069877024" lon="6.94973439874585">
        <ele>0</ele>
        <time>0001-01-01T00:00:00Z</time>
      </trkpt>
      <trkpt lat="51.5809798005212" lon="6.94981551910504">
        <ele>0</ele>
        <time>0001-01-01T00:00:00Z</time>
      </trkpt>
      <trkpt lat="51.5812990553493" lon="6.94971637199937">
        <ele>0</ele>
        <time>0001-01-01T00:00:00Z</time>
      </trkpt>
      <trkpt lat="51.5814558814609" lon="6.949554131281">
        <ele>0</ele>
        <time>0001-01-01T00:00:00Z</time>
      </trkpt>
      <trkpt lat="51.5815847025048" lon="6.9494279440556">
        <ele>0</ele>
        <time>0001-01-01T00:00:00Z</time>
      </trkpt>
      <trkpt lat="51.5817415276306" lon="6.94932879694993">
        <ele>0</ele>
        <time>0001-01-01T00:00:00Z</time>
      </trkpt>
      <trkpt lat="51.5819991677338" lon="6.94922063647101">
        <ele>0</ele>
        <time>0001-01-01T00:00:00Z</time>
      </trkpt>
      <trkpt lat="51.582335217847" lon="6.94905839575264">
        <ele>0</ele>
        <time>0001-01-01T00:00:00Z</time>
      </trkpt>
      <trkpt lat="51.5824080283773" lon="6.94909444924561">
        <ele>0</ele>
        <time>0001-01-01T00:00:00Z</time>
      </trkpt>
      <trkpt lat="51.5825536490879" lon="6.94931077020344">
        <ele>0</ele>
        <time>0001-01-01T00:00:00Z</time>
      </trkpt>
      <trkpt lat="51.5825816530173" lon="6.94948202429506">
        <ele>0</ele>
        <time>0001-01-01T00:00:00Z</time>
      </trkpt>
      <trkpt lat="51.582643261601" lon="6.94990565283747">
        <ele>0</ele>
        <time>0001-01-01T00:00:00Z</time>
      </trkpt>
      <trkpt lat="51.5826936685619" lon="6.95039237499258">
        <ele>0</ele>
        <time>0001-01-01T00:00:00Z</time>
      </trkpt>
      <trkpt lat="51.5827608777562" lon="6.95081600353499">
        <ele>0</ele>
        <time>0001-01-01T00:00:00Z</time>
      </trkpt>
      <trkpt lat="51.5828392883572" lon="6.95132075243659">
        <ele>0</ele>
        <time>0001-01-01T00:00:00Z</time>
      </trkpt>
      <trkpt lat="51.5828840943541" lon="6.95154608676766">
        <ele>0</ele>
        <time>0001-01-01T00:00:00Z</time>
      </trkpt>
      <trkpt lat="51.5829513032667" lon="6.95189760832413">
        <ele>0</ele>
        <time>0001-01-01T00:00:00Z</time>
      </trkpt>
      <trkpt lat="51.5829569040049" lon="6.95211392928195">
        <ele>0</ele>
        <time>0001-01-01T00:00:00Z</time>
      </trkpt>
      <trkpt lat="51.5829289003069" lon="6.95266374504977">
        <ele>0</ele>
        <time>0001-01-01T00:00:00Z</time>
      </trkpt>
      <trkpt lat="51.582906497336" lon="6.95294315962029">
        <ele>0</ele>
        <time>0001-01-01T00:00:00Z</time>
      </trkpt>
      <trkpt lat="51.5830745193483" lon="6.95296118636678">
        <ele>0</ele>
        <time>0001-01-01T00:00:00Z</time>
      </trkpt>
      <trkpt lat="51.5832369400363" lon="6.95295217299354">
        <ele>0</ele>
        <time>0001-01-01T00:00:00Z</time>
      </trkpt>
      <trkpt lat="51.5833097491217" lon="6.95304230672596">
        <ele>0</ele>
        <time>0001-01-01T00:00:00Z</time>
      </trkpt>
      <trkpt lat="51.583304148427" lon="6.95323158756406">
        <ele>0</ele>
        <time>0001-01-01T00:00:00Z</time>
      </trkpt>
      <trkpt lat="51.5834049608266" lon="6.95332172129649">
        <ele>0</ele>
        <time>0001-01-01T00:00:00Z</time>
      </trkpt>
      <trkpt lat="51.583595383638" lon="6.95342086840216">
        <ele>0</ele>
        <time>0001-01-01T00:00:00Z</time>
      </trkpt>
      <trkpt lat="51.5837185979731" lon="6.95345692189513">
        <ele>0</ele>
        <time>0001-01-01T00:00:00Z</time>
      </trkpt>
      <trkpt lat="51.5838642144838" lon="6.95348396201486">
        <ele>0</ele>
        <time>0001-01-01T00:00:00Z</time>
      </trkpt>
      <trkpt lat="51.5840042299194" lon="6.95338481490919">
        <ele>0</ele>
        <time>0001-01-01T00:00:00Z</time>
      </trkpt>
      <trkpt lat="51.5841106413618" lon="6.95330369455001">
        <ele>0</ele>
        <time>0001-01-01T00:00:00Z</time>
      </trkpt>
      <trkpt lat="51.5842226531373" lon="6.95331270792325">
        <ele>0</ele>
        <time>0001-01-01T00:00:00Z</time>
      </trkpt>
      <trkpt lat="51.5843626674684" lon="6.95338481490919">
        <ele>0</ele>
        <time>0001-01-01T00:00:00Z</time>
      </trkpt>
      <trkpt lat="51.5843850697213" lon="6.95323158756406">
        <ele>0</ele>
        <time>0001-01-01T00:00:00Z</time>
      </trkpt>
      <trkpt lat="51.5844522764138" lon="6.95296118636678">
        <ele>0</ele>
        <time>0001-01-01T00:00:00Z</time>
      </trkpt>
      <trkpt lat="51.584519483007" lon="6.95281697239489">
        <ele>0</ele>
        <time>0001-01-01T00:00:00Z</time>
      </trkpt>
      <trkpt lat="51.5846370943057" lon="6.95278993227516">
        <ele>0</ele>
        <time>0001-01-01T00:00:00Z</time>
      </trkpt>
      <trkpt lat="51.5847155016691" lon="6.95278091890192">
        <ele>0</ele>
        <time>0001-01-01T00:00:00Z</time>
      </trkpt>
      <trkpt lat="51.5848835169922" lon="6.95271782528922">
        <ele>0</ele>
        <time>0001-01-01T00:00:00Z</time>
      </trkpt>
      <trkpt lat="51.5848443134724" lon="6.95309638696542">
        <ele>0</ele>
        <time>0001-01-01T00:00:00Z</time>
      </trkpt>
      <trkpt lat="51.5848499139773" lon="6.95344790852189">
        <ele>0</ele>
        <time>0001-01-01T00:00:00Z</time>
      </trkpt>
      <trkpt lat="51.5849395219618" lon="6.95383548357133">
        <ele>0</ele>
        <time>0001-01-01T00:00:00Z</time>
      </trkpt>
      <trkpt lat="51.5850011273487" lon="6.95415095163483">
        <ele>0</ele>
        <time>0001-01-01T00:00:00Z</time>
      </trkpt>
      <trkpt lat="51.5850123283191" lon="6.9543762859659">
        <ele>0</ele>
        <time>0001-01-01T00:00:00Z</time>
      </trkpt>
      <trkpt lat="51.5849843258878" lon="6.954565566804">
        <ele>0</ele>
        <time>0001-01-01T00:00:00Z</time>
      </trkpt>
      <trkpt lat="51.5847939088972" lon="6.95509735582532">
        <ele>0</ele>
        <time>0001-01-01T00:00:00Z</time>
      </trkpt>
      <trkpt lat="51.584861114985" lon="6.95512439594505">
        <ele>0</ele>
        <time>0001-01-01T00:00:00Z</time>
      </trkpt>
      <trkpt lat="51.5850235292868" lon="6.95515143606478">
        <ele>0</ele>
        <time>0001-01-01T00:00:00Z</time>
      </trkpt>
      <trkpt lat="51.5850403307332" lon="6.95524156979721">
        <ele>0</ele>
        <time>0001-01-01T00:00:00Z</time>
      </trkpt>
      <trkpt lat="51.5850235292868" lon="6.95565618496638">
        <ele>0</ele>
        <time>0001-01-01T00:00:00Z</time>
      </trkpt>
      <trkpt lat="51.5850011273487" lon="6.95645837518499">
        <ele>0</ele>
        <time>0001-01-01T00:00:00Z</time>
      </trkpt>
      <trkpt lat="51.5849843258878" lon="6.95665666939633">
        <ele>0</ele>
        <time>0001-01-01T00:00:00Z</time>
      </trkpt>
      <trkpt lat="51.585051531694" lon="6.95690003047388">
        <ele>0</ele>
        <time>0001-01-01T00:00:00Z</time>
      </trkpt>
      <trkpt lat="51.585113136929" lon="6.95699016420631">
        <ele>0</ele>
        <time>0001-01-01T00:00:00Z</time>
      </trkpt>
      <trkpt lat="51.5852251462331" lon="6.95702621769928">
        <ele>0</ele>
        <time>0001-01-01T00:00:00Z</time>
      </trkpt>
      <trkpt lat="51.5853875592337" lon="6.95699016420631">
        <ele>0</ele>
        <time>0001-01-01T00:00:00Z</time>
      </trkpt>
      <trkpt lat="51.5854771661579" lon="6.9570081909528">
        <ele>0</ele>
        <time>0001-01-01T00:00:00Z</time>
      </trkpt>
      <trkpt lat="51.585510768709" lon="6.95716141829793">
        <ele>0</ele>
        <time>0001-01-01T00:00:00Z</time>
      </trkpt>
      <trkpt lat="51.5855275699752" lon="6.95750392648115">
        <ele>0</ele>
        <time>0001-01-01T00:00:00Z</time>
      </trkpt>
      <trkpt lat="51.5856059758019" lon="6.95759406021358">
        <ele>0</ele>
        <time>0001-01-01T00:00:00Z</time>
      </trkpt>
      <trkpt lat="51.5857795882225" lon="6.95787347478411">
        <ele>0</ele>
        <time>0001-01-01T00:00:00Z</time>
      </trkpt>
      <trkpt lat="51.5857627870495" lon="6.95814387598139">
        <ele>0</ele>
        <time>0001-01-01T00:00:00Z</time>
      </trkpt>
      <trkpt lat="51.5857739878322" lon="6.95840526380543">
        <ele>0</ele>
        <time>0001-01-01T00:00:00Z</time>
      </trkpt>
      <trkpt lat="51.5857291846849" lon="6.95858553127029">
        <ele>0</ele>
        <time>0001-01-01T00:00:00Z</time>
      </trkpt>
      <trkpt lat="51.5858019897768" lon="6.9588198789746">
        <ele>0</ele>
        <time>0001-01-01T00:00:00Z</time>
      </trkpt>
      <trkpt lat="51.5859307984999" lon="6.95893705282676">
        <ele>0</ele>
        <time>0001-01-01T00:00:00Z</time>
      </trkpt>
      <trkpt lat="51.586054006502" lon="6.95924350751701">
        <ele>0</ele>
        <time>0001-01-01T00:00:00Z</time>
      </trkpt>
      <trkpt lat="51.5862220168756" lon="6.95968516280591">
        <ele>0</ele>
        <time>0001-01-01T00:00:00Z</time>
      </trkpt>
      <trkpt lat="51.5864124278812" lon="6.96012681809481">
        <ele>0</ele>
        <time>0001-01-01T00:00:00Z</time>
      </trkpt>
      <trkpt lat="51.5864964324829" lon="6.96031609893291">
        <ele>0</ele>
        <time>0001-01-01T00:00:00Z</time>
      </trkpt>
      <trkpt lat="51.5866868423385" lon="6.96064058036965">
        <ele>0</ele>
        <time>0001-01-01T00:00:00Z</time>
      </trkpt>
      <trkpt lat="51.5869556548938" lon="6.96133461010935">
        <ele>0</ele>
        <time>0001-01-01T00:00:00Z</time>
      </trkpt>
      <trkpt lat="51.5871180617085" lon="6.96165909154609">
        <ele>0</ele>
        <time>0001-01-01T00:00:00Z</time>
      </trkpt>
      <trkpt lat="51.587930087074" lon="6.96275872308171">
        <ele>0</ele>
        <time>0001-01-01T00:00:00Z</time>
      </trkpt>
      <trkpt lat="51.5880364893223" lon="6.96290293705359">
        <ele>0</ele>
        <time>0001-01-01T00:00:00Z</time>
      </trkpt>
      <trkpt lat="51.5882380928988" lon="6.96320037837061">
        <ele>0</ele>
        <time>0001-01-01T00:00:00Z</time>
      </trkpt>
      <trkpt lat="51.5886524974409" lon="6.96375019413842">
        <ele>0</ele>
        <time>0001-01-01T00:00:00Z</time>
      </trkpt>
      <trkpt lat="51.5888204982055" lon="6.96397552846949">
        <ele>0</ele>
        <time>0001-01-01T00:00:00Z</time>
      </trkpt>
      <trkpt lat="51.5890948981182" lon="6.96434507677244">
        <ele>0</ele>
        <time>0001-01-01T00:00:00Z</time>
      </trkpt>
      <trkpt lat="51.5893468965781" lon="6.96468758495567">
        <ele>0</ele>
        <time>0001-01-01T00:00:00Z</time>
      </trkpt>
      <trkpt lat="51.5895148947748" lon="6.96489489254025">
        <ele>0</ele>
        <time>0001-01-01T00:00:00Z</time>
      </trkpt>
      <trkpt lat="51.5896492928848" lon="6.96517430711078">
        <ele>0</ele>
        <time>0001-01-01T00:00:00Z</time>
      </trkpt>
      <trkpt lat="51.5895820938795" lon="6.96532753445591">
        <ele>0</ele>
        <time>0001-01-01T00:00:00Z</time>
      </trkpt>
      <trkpt lat="51.5896492928848" lon="6.96549878854752">
        <ele>0</ele>
        <time>0001-01-01T00:00:00Z</time>
      </trkpt>
      <trkpt lat="51.5895428944138" lon="6.96607564443506">
        <ele>0</ele>
        <time>0001-01-01T00:00:00Z</time>
      </trkpt>
      <trkpt lat="51.5894308957541" lon="6.96649025960423">
        <ele>0</ele>
        <time>0001-01-01T00:00:00Z</time>
      </trkpt>
      <trkpt lat="51.589352496528" lon="6.96706711549177">
        <ele>0</ele>
        <time>0001-01-01T00:00:00Z</time>
      </trkpt>
      <trkpt lat="51.5893636964258" lon="6.96746370391445">
        <ele>0</ele>
        <time>0001-01-01T00:00:00Z</time>
      </trkpt>
      <trkpt lat="51.5892740971666" lon="6.96830194762603">
        <ele>0</ele>
        <time>0001-01-01T00:00:00Z</time>
      </trkpt>
      <trkpt lat="51.5892012976385" lon="6.96895992387276">
        <ele>0</ele>
        <time>0001-01-01T00:00:00Z</time>
      </trkpt>
      <trkpt lat="51.5890444982585" lon="6.96910413784464">
        <ele>0</ele>
        <time>0001-01-01T00:00:00Z</time>
      </trkpt>
      <trkpt lat="51.5884396955806" lon="6.96932045880247">
        <ele>0</ele>
        <time>0001-01-01T00:00:00Z</time>
      </trkpt>
      <trkpt lat="51.5878964863122" lon="6.9694736861476">
        <ele>0</ele>
        <time>0001-01-01T00:00:00Z</time>
      </trkpt>
      <trkpt lat="51.5874428735963" lon="6.96950072626733">
        <ele>0</ele>
        <time>0001-01-01T00:00:00Z</time>
      </trkpt>
      <trkpt lat="51.5872860681473" lon="6.96954579313354">
        <ele>0</ele>
        <time>0001-01-01T00:00:00Z</time>
      </trkpt>
      <trkpt lat="51.5870620594241" lon="6.96974408734488">
        <ele>0</ele>
        <time>0001-01-01T00:00:00Z</time>
      </trkpt>
      <trkpt lat="51.5863004215039" lon="6.96996040830271">
        <ele>0</ele>
        <time>0001-01-01T00:00:00Z</time>
      </trkpt>
      <trkpt lat="51.5861548128007" lon="6.96965395361245">
        <ele>0</ele>
        <time>0001-01-01T00:00:00Z</time>
      </trkpt>
      <trkpt lat="51.5860148039921" lon="6.96986126119704">
        <ele>0</ele>
        <time>0001-01-01T00:00:00Z</time>
      </trkpt>
      <trkpt lat="51.5857795882225" lon="6.97038403684512">
        <ele>0</ele>
        <time>0001-01-01T00:00:00Z</time>
      </trkpt>
      <trkpt lat="51.5855387708158" lon="6.97087977237348">
        <ele>0</ele>
        <time>0001-01-01T00:00:00Z</time>
      </trkpt>
      <trkpt lat="51.5853875592337" lon="6.9709068124932">
        <ele>0</ele>
        <time>0001-01-01T00:00:00Z</time>
      </trkpt>
      <trkpt lat="51.5849115194856" lon="6.97092483923969">
        <ele>0</ele>
        <time>0001-01-01T00:00:00Z</time>
      </trkpt>
      <trkpt lat="51.5850011273487" lon="6.97148366838074">
        <ele>0</ele>
        <time>0001-01-01T00:00:00Z</time>
      </trkpt>
      <trkpt lat="51.5850571321733" lon="6.97190729692316">
        <ele>0</ele>
        <time>0001-01-01T00:00:00Z</time>
      </trkpt>
      <trkpt lat="51.585113136929" lon="6.97240303245151">
        <ele>0</ele>
        <time>0001-01-01T00:00:00Z</time>
      </trkpt>
      <trkpt lat="51.5850067278343" lon="6.97256527316988">
        <ele>0</ele>
        <time>0001-01-01T00:00:00Z</time>
      </trkpt>
      <trkpt lat="51.58487231599" lon="6.97256527316988">
        <ele>0</ele>
        <time>0001-01-01T00:00:00Z</time>
      </trkpt>
      <trkpt lat="51.5847715068458" lon="6.9725472464234">
        <ele>0</ele>
        <time>0001-01-01T00:00:00Z</time>
      </trkpt>
      <trkpt lat="51.584670697478" lon="6.97257428654312">
        <ele>0</ele>
        <time>0001-01-01T00:00:00Z</time>
      </trkpt>
      <trkpt lat="51.584519483007" lon="6.97267343364879">
        <ele>0</ele>
        <time>0001-01-01T00:00:00Z</time>
      </trkpt>
      <trkpt lat="51.5843234634992" lon="6.97266442027555">
        <ele>0</ele>
        <time>0001-01-01T00:00:00Z</time>
      </trkpt>
      <trkpt lat="51.5840826383748" lon="6.97278159412771">
        <ele>0</ele>
        <time>0001-01-01T00:00:00Z</time>
      </trkpt>
      <trkpt lat="51.5839146200903" lon="6.97288074123338">
        <ele>0</ele>
        <time>0001-01-01T00:00:00Z</time>
      </trkpt>
      <trkpt lat="51.5838138088214" lon="6.97279060750095">
        <ele>0</ele>
        <time>0001-01-01T00:00:00Z</time>
      </trkpt>
      <trkpt lat="51.5836849940967" lon="6.97266442027555">
        <ele>0</ele>
        <time>0001-01-01T00:00:00Z</time>
      </trkpt>
      <trkpt lat="51.5834609676187" lon="6.97268244702204">
        <ele>0</ele>
        <time>0001-01-01T00:00:00Z</time>
      </trkpt>
      <trkpt lat="51.5832033358036" lon="6.97276356738122">
        <ele>0</ele>
        <time>0001-01-01T00:00:00Z</time>
      </trkpt>
      <trkpt lat="51.5830073106179" lon="6.97289876797987">
        <ele>0</ele>
        <time>0001-01-01T00:00:00Z</time>
      </trkpt>
      <trkpt lat="51.5829008965916" lon="6.97290778135311">
        <ele>0</ele>
        <time>0001-01-01T00:00:00Z</time>
      </trkpt>
      <trkpt lat="51.5827888815578" lon="6.97277258075447">
        <ele>0</ele>
        <time>0001-01-01T00:00:00Z</time>
      </trkpt>
      <trkpt lat="51.5826544631527" lon="6.97262836678258">
        <ele>0</ele>
        <time>0001-01-01T00:00:00Z</time>
      </trkpt>
      <trkpt lat="51.5824920403827" lon="6.97260132666285">
        <ele>0</ele>
        <time>0001-01-01T00:00:00Z</time>
      </trkpt>
      <trkpt lat="51.582335217847" lon="6.97270948714177">
        <ele>0</ele>
        <time>0001-01-01T00:00:00Z</time>
      </trkpt>
      <trkpt lat="51.5822176005901" lon="6.97270047376852">
        <ele>0</ele>
        <time>0001-01-01T00:00:00Z</time>
      </trkpt>
      <trkpt lat="51.5820271720048" lon="6.97262836678258">
        <ele>0</ele>
        <time>0001-01-01T00:00:00Z</time>
      </trkpt>
      <trkpt lat="51.5818927513465" lon="6.97270047376852">
        <ele>0</ele>
        <time>0001-01-01T00:00:00Z</time>
      </trkpt>
      <trkpt lat="51.5817303258539" lon="6.97282666099392">
        <ele>0</ele>
        <time>0001-01-01T00:00:00Z</time>
      </trkpt>
      <trkpt lat="51.5815903034115" lon="6.97292580809959">
        <ele>0</ele>
        <time>0001-01-01T00:00:00Z</time>
      </trkpt>
      <trkpt lat="51.5814950879042" lon="6.97285370111365">
        <ele>0</ele>
        <time>0001-01-01T00:00:00Z</time>
      </trkpt>
      <trkpt lat="51.5813942712673" lon="6.97272751388825">
        <ele>0</ele>
        <time>0001-01-01T00:00:00Z</time>
      </trkpt>
      <trkpt lat="51.5812934544067" lon="6.97270047376852">
        <ele>0</ele>
        <time>0001-01-01T00:00:00Z</time>
      </trkpt>
      <trkpt lat="51.5811926373225" lon="6.97274554063474">
        <ele>0</ele>
        <time>0001-01-01T00:00:00Z</time>
      </trkpt>
      <trkpt lat="51.5809237906709" lon="6.97299791508554">
        <ele>0</ele>
        <time>0001-01-01T00:00:00Z</time>
      </trkpt>
      <trkpt lat="51.5807109526105" lon="6.97315114243066">
        <ele>0</ele>
        <time>0001-01-01T00:00:00Z</time>
      </trkpt>
      <trkpt lat="51.5805765280587" lon="6.97313311568418">
        <ele>0</ele>
        <time>0001-01-01T00:00:00Z</time>
      </trkpt>
      <trkpt lat="51.5804252999626" lon="6.97309706219121">
        <ele>0</ele>
        <time>0001-01-01T00:00:00Z</time>
      </trkpt>
      <trkpt lat="51.5802404649396" lon="6.97318719592363">
        <ele>0</ele>
        <time>0001-01-01T00:00:00Z</time>
      </trkpt>
      <trkpt lat="51.5801172411732" lon="6.97344858374768">
        <ele>0</ele>
        <time>0001-01-01T00:00:00Z</time>
      </trkpt>
      <trkpt lat="51.5799828148652" lon="6.97369194482523">
        <ele>0</ele>
        <time>0001-01-01T00:00:00Z</time>
      </trkpt>
      <trkpt lat="51.5798483881595" lon="6.97376405181117">
        <ele>0</ele>
        <time>0001-01-01T00:00:00Z</time>
      </trkpt>
      <trkpt lat="51.5795795335553" lon="6.97377306518442">
        <ele>0</ele>
        <time>0001-01-01T00:00:00Z</time>
      </trkpt>
      <trkpt lat="51.5793498856547" lon="6.97376405181117">
        <ele>0</ele>
        <time>0001-01-01T00:00:00Z</time>
      </trkpt>
      <trkpt lat="51.5791762486667" lon="6.97377306518442">
        <ele>0</ele>
        <time>0001-01-01T00:00:00Z</time>
      </trkpt>
      <trkpt lat="51.5790698256687" lon="6.97383615879712">
        <ele>0</ele>
        <time>0001-01-01T00:00:00Z</time>
      </trkpt>
      <trkpt lat="51.578862580168" lon="6.97397135939576">
        <ele>0</ele>
        <time>0001-01-01T00:00:00Z</time>
      </trkpt>
      <trkpt lat="51.5787337514074" lon="6.97400741288873">
        <ele>0</ele>
        <time>0001-01-01T00:00:00Z</time>
      </trkpt>
      <trkpt lat="51.5785937197317" lon="6.97399839951549">
        <ele>0</ele>
        <time>0001-01-01T00:00:00Z</time>
      </trkpt>
      <trkpt lat="51.5784424850374" lon="6.97405247975494">
        <ele>0</ele>
        <time>0001-01-01T00:00:00Z</time>
      </trkpt>
      <trkpt lat="51.5783472629345" lon="6.9741696536071">
        <ele>0</ele>
        <time>0001-01-01T00:00:00Z</time>
      </trkpt>
      <trkpt lat="51.5782520406322" lon="6.97426880071277">
        <ele>0</ele>
        <time>0001-01-01T00:00:00Z</time>
      </trkpt>
      <trkpt lat="51.5781624194596" lon="6.97395333264927">
        <ele>0</ele>
        <time>0001-01-01T00:00:00Z</time>
      </trkpt>
      <trkpt lat="51.5780391900586" lon="6.97363786458578">
        <ele>0</ele>
        <time>0001-01-01T00:00:00Z</time>
      </trkpt>
      <trkpt lat="51.5778767507922" lon="6.97332239652228">
        <ele>0</ele>
        <time>0001-01-01T00:00:00Z</time>
      </trkpt>
      <trkpt lat="51.5777031081758" lon="6.97307002207148">
        <ele>0</ele>
        <time>0001-01-01T00:00:00Z</time>
      </trkpt>
      <trkpt lat="51.577518262081" lon="6.97290778135311">
        <ele>0</ele>
        <time>0001-01-01T00:00:00Z</time>
      </trkpt>
      <trkpt lat="51.5773222123709" lon="6.97277258075447">
        <ele>0</ele>
        <time>0001-01-01T00:00:00Z</time>
      </trkpt>
      <trkpt lat="51.577159770542" lon="6.97270047376852">
        <ele>0</ele>
        <time>0001-01-01T00:00:00Z</time>
      </trkpt>
      <trkpt lat="51.5769749222373" lon="6.97261935340934">
        <ele>0</ele>
        <time>0001-01-01T00:00:00Z</time>
      </trkpt>
      <trkpt lat="51.5767340581668" lon="6.97258329991637">
        <ele>0</ele>
        <time>0001-01-01T00:00:00Z</time>
      </trkpt>
      <trkpt lat="51.5763699588928" lon="6.97253823305015">
        <ele>0</ele>
        <time>0001-01-01T00:00:00Z</time>
      </trkpt>
      <trkpt lat="51.5763419511355" lon="6.97217769812044">
        <ele>0</ele>
        <time>0001-01-01T00:00:00Z</time>
      </trkpt>
      <trkpt lat="51.5763251464729" lon="6.97150169512723">
        <ele>0</ele>
        <time>0001-01-01T00:00:00Z</time>
      </trkpt>
      <trkpt lat="51.576336349582" lon="6.97107806658482">
        <ele>0</ele>
        <time>0001-01-01T00:00:00Z</time>
      </trkpt>
      <trkpt lat="51.5760450678473" lon="6.97118622706373">
        <ele>0</ele>
        <time>0001-01-01T00:00:00Z</time>
      </trkpt>
      <trkpt lat="51.57589942628" lon="6.97084371888051">
        <ele>0</ele>
        <time>0001-01-01T00:00:00Z</time>
      </trkpt>
      <trkpt lat="51.5759050278874" lon="6.97044713045782">
        <ele>0</ele>
        <time>0001-01-01T00:00:00Z</time>
      </trkpt>
      <trkpt lat="51.5761010837105" lon="6.96943763265463">
        <ele>0</ele>
        <time>0001-01-01T00:00:00Z</time>
      </trkpt>
      <trkpt lat="51.5761514979284" lon="6.96916723145734">
        <ele>0</ele>
        <time>0001-01-01T00:00:00Z</time>
      </trkpt>
      <trkpt lat="51.576179505803" lon="6.96886077676709">
        <ele>0</ele>
        <time>0001-01-01T00:00:00Z</time>
      </trkpt>
      <trkpt lat="51.5762131152298" lon="6.96846418834441">
        <ele>0</ele>
        <time>0001-01-01T00:00:00Z</time>
      </trkpt>
      <trkpt lat="51.5762019120903" lon="6.96814872028091">
        <ele>0</ele>
        <time>0001-01-01T00:00:00Z</time>
      </trkpt>
      <trkpt lat="51.5761402947737" lon="6.9675989045131">
        <ele>0</ele>
        <time>0001-01-01T00:00:00Z</time>
      </trkpt>
      <trkpt lat="51.5760114582963" lon="6.96707612886501">
        <ele>0</ele>
        <time>0001-01-01T00:00:00Z</time>
      </trkpt>
      <trkpt lat="51.5758658166213" lon="6.96655335321693">
        <ele>0</ele>
        <time>0001-01-01T00:00:00Z</time>
      </trkpt>
      <trkpt lat="51.575725776109" lon="6.96598551070263">
        <ele>0</ele>
        <time>0001-01-01T00:00:00Z</time>
      </trkpt>
      <trkpt lat="51.5754512954533" lon="6.96564300251941">
        <ele>0</ele>
        <time>0001-01-01T00:00:00Z</time>
      </trkpt>
      <trkpt lat="51.5751039910236" lon="6.96515628036429">
        <ele>0</ele>
        <time>0001-01-01T00:00:00Z</time>
      </trkpt>
      <trkpt lat="51.5750087619261" lon="6.96502107976565">
        <ele>0</ele>
        <time>0001-01-01T00:00:00Z</time>
      </trkpt>
      <trkpt lat="51.574644648831" lon="6.96483179892755">
        <ele>0</ele>
        <time>0001-01-01T00:00:00Z</time>
      </trkpt>
      <trkpt lat="51.5744485867255" lon="6.96469659832891">
        <ele>0</ele>
        <time>0001-01-01T00:00:00Z</time>
      </trkpt>
      <trkpt lat="51.5740340526324" lon="6.96424592966677">
        <ele>0</ele>
        <time>0001-01-01T00:00:00Z</time>
      </trkpt>
      <trkpt lat="51.5738211823046" lon="6.9640205953357">
        <ele>0</ele>
        <time>0001-01-01T00:00:00Z</time>
      </trkpt>
      <trkpt lat="51.5734850692311" lon="6.9635158464341">
        <ele>0</ele>
        <time>0001-01-01T00:00:00Z</time>
      </trkpt>
      <trkpt lat="51.5730985361241" lon="6.96308320451845">
        <ele>0</ele>
        <time>0001-01-01T00:00:00Z</time>
      </trkpt>
      <trkpt lat="51.5725943575666" lon="6.96247029513794">
        <ele>0</ele>
        <time>0001-01-01T00:00:00Z</time>
      </trkpt>
      <trkpt lat="51.5722526333647" lon="6.96209173346174">
        <ele>0</ele>
        <time>0001-01-01T00:00:00Z</time>
      </trkpt>
      <trkpt lat="51.571966927552" lon="6.96199258635607">
        <ele>0</ele>
        <time>0001-01-01T00:00:00Z</time>
      </trkpt>
      <trkpt lat="51.571613994363" lon="6.96203765322228">
        <ele>0</ele>
        <time>0001-01-01T00:00:00Z</time>
      </trkpt>
      <trkpt lat="51.5713955105395" lon="6.96210074683498">
        <ele>0</ele>
        <time>0001-01-01T00:00:00Z</time>
      </trkpt>
      <trkpt lat="51.5712554562542" lon="6.96219989394065">
        <ele>0</ele>
        <time>0001-01-01T00:00:00Z</time>
      </trkpt>
      <trkpt lat="51.5711546169016" lon="6.96193850611661">
        <ele>0</ele>
        <time>0001-01-01T00:00:00Z</time>
      </trkpt>
      <trkpt lat="51.5709697441742" lon="6.96165909154609">
        <ele>0</ele>
        <time>0001-01-01T00:00:00Z</time>
      </trkpt>
      <trkpt lat="51.5708296885771" lon="6.96165007817284">
        <ele>0</ele>
        <time>0001-01-01T00:00:00Z</time>
      </trkpt>
      <trkpt lat="51.5705383715531" lon="6.96154191769393">
        <ele>0</ele>
        <time>0001-01-01T00:00:00Z</time>
      </trkpt>
      <trkpt lat="51.570409519197" lon="6.96124447637692">
        <ele>0</ele>
        <time>0001-01-01T00:00:00Z</time>
      </trkpt>
      <trkpt lat="51.5701462110727" lon="6.96089295482045">
        <ele>0</ele>
        <time>0001-01-01T00:00:00Z</time>
      </trkpt>
      <trkpt lat="51.5701181994804" lon="6.96084788795423">
        <ele>0</ele>
        <time>0001-01-01T00:00:00Z</time>
      </trkpt>
      <trkpt lat="51.5700901878708" lon="6.96073071410208">
        <ele>0</ele>
        <time>0001-01-01T00:00:00Z</time>
      </trkpt>
      <trkpt lat="51.5700901878708" lon="6.96058650013019">
        <ele>0</ele>
        <time>0001-01-01T00:00:00Z</time>
      </trkpt>
      <trkpt lat="51.5701294041194" lon="6.96050537977101">
        <ele>0</ele>
        <time>0001-01-01T00:00:00Z</time>
      </trkpt>
      <trkpt lat="51.5702470526622" lon="6.96040623266534">
        <ele>0</ele>
        <time>0001-01-01T00:00:00Z</time>
      </trkpt>
      <trkpt lat="51.5701462110727" lon="6.96011780472157">
        <ele>0</ele>
        <time>0001-01-01T00:00:00Z</time>
      </trkpt>
      <trkpt lat="51.569972538922" lon="6.95979332328483">
        <ele>0</ele>
        <time>0001-01-01T00:00:00Z</time>
      </trkpt>
      <trkpt lat="51.5698100708256" lon="6.95963108256645">
        <ele>0</ele>
        <time>0001-01-01T00:00:00Z</time>
      </trkpt>
      <trkpt lat="51.5695579640091" lon="6.95952292208754">
        <ele>0</ele>
        <time>0001-01-01T00:00:00Z</time>
      </trkpt>
      <trkpt lat="51.5692610364101" lon="6.95942377498187">
        <ele>0</ele>
        <time>0001-01-01T00:00:00Z</time>
      </trkpt>
      <trkpt lat="51.5687736227506" lon="6.95929758775647">
        <ele>0</ele>
        <time>0001-01-01T00:00:00Z</time>
      </trkpt>
      <trkpt lat="51.5684878950724" lon="6.9591984406508">
        <ele>0</ele>
        <time>0001-01-01T00:00:00Z</time>
      </trkpt>
      <trkpt lat="51.5680957169039" lon="6.95912633366486">
        <ele>0</ele>
        <time>0001-01-01T00:00:00Z</time>
      </trkpt>
      <trkpt lat="51.5682357809239" lon="6.95855849115056">
        <ele>0</ele>
        <time>0001-01-01T00:00:00Z</time>
      </trkpt>
      <trkpt lat="51.5684206647695" lon="6.95781939454465">
        <ele>0</ele>
        <time>0001-01-01T00:00:00Z</time>
      </trkpt>
      <trkpt lat="51.5684206647695" lon="6.95778334105168">
        <ele>0</ele>
        <time>0001-01-01T00:00:00Z</time>
      </trkpt>
      <trkpt lat="51.5680284860211" lon="6.95717944504441">
        <ele>0</ele>
        <time>0001-01-01T00:00:00Z</time>
      </trkpt>
      <trkpt lat="51.5672889397481" lon="6.9560617867623">
        <ele>0</ele>
        <time>0001-01-01T00:00:00Z</time>
      </trkpt>
      <trkpt lat="51.5668687376428" lon="6.95544887738179">
        <ele>0</ele>
        <time>0001-01-01T00:00:00Z</time>
      </trkpt>
      <trkpt lat="51.5664597371973" lon="6.9548179412548">
        <ele>0</ele>
        <time>0001-01-01T00:00:00Z</time>
      </trkpt>
      <trkpt lat="51.5661964061963" lon="6.95444839295184">
        <ele>0</ele>
        <time>0001-01-01T00:00:00Z</time>
      </trkpt>
      <trkpt lat="51.5656529310108" lon="6.95520551630424">
        <ele>0</ele>
        <time>0001-01-01T00:00:00Z</time>
      </trkpt>
      <trkpt lat="51.5654568301222" lon="6.95495314185344">
        <ele>0</ele>
        <time>0001-01-01T00:00:00Z</time>
      </trkpt>
      <trkpt lat="51.5653335662736" lon="6.95476386101534">
        <ele>0</ele>
        <time>0001-01-01T00:00:00Z</time>
      </trkpt>
      <trkpt lat="51.5651542728064" lon="6.95470978077588">
        <ele>0</ele>
        <time>0001-01-01T00:00:00Z</time>
      </trkpt>
      <trkpt lat="51.5648573164461" lon="6.95479090113507">
        <ele>0</ele>
        <time>0001-01-01T00:00:00Z</time>
      </trkpt>
      <trkpt lat="51.5645491521349" lon="6.95489906161398">
        <ele>0</ele>
        <time>0001-01-01T00:00:00Z</time>
      </trkpt>
      <trkpt lat="51.5643418404232" lon="6.95496215522668">
        <ele>0</ele>
        <time>0001-01-01T00:00:00Z</time>
      </trkpt>
      <trkpt lat="51.5641849552563" lon="6.95482695462804">
        <ele>0</ele>
        <time>0001-01-01T00:00:00Z</time>
      </trkpt>
      <trkpt lat="51.5640560848928" lon="6.95465570053643">
        <ele>0</ele>
        <time>0001-01-01T00:00:00Z</time>
      </trkpt>
      <trkpt lat="51.563949626491" lon="6.95453852668427">
        <ele>0</ele>
        <time>0001-01-01T00:00:00Z</time>
      </trkpt>
      <trkpt lat="51.5638711832986" lon="6.95447543307157">
        <ele>0</ele>
        <time>0001-01-01T00:00:00Z</time>
      </trkpt>
      <trkpt lat="51.5637647244639" lon="6.95449345981806">
        <ele>0</ele>
        <time>0001-01-01T00:00:00Z</time>
      </trkpt>
      <trkpt lat="51.5636526622633" lon="6.95458359355048">
        <ele>0</ele>
        <time>0001-01-01T00:00:00Z</time>
      </trkpt>
      <trkpt lat="51.5633444897877" lon="6.95489906161398">
        <ele>0</ele>
        <time>0001-01-01T00:00:00Z</time>
      </trkpt>
      <trkpt lat="51.5629186480209" lon="6.95518748955775">
        <ele>0</ele>
        <time>0001-01-01T00:00:00Z</time>
      </trkpt>
      <trkpt lat="51.5626552965114" lon="6.95506130233235">
        <ele>0</ele>
        <time>0001-01-01T00:00:00Z</time>
      </trkpt>
      <trkpt lat="51.5620445392684" lon="6.95472780752237">
        <ele>0</ele>
        <time>0001-01-01T00:00:00Z</time>
      </trkpt>
      <trkpt lat="51.5617699760002" lon="6.95455655343075">
        <ele>0</ele>
        <time>0001-01-01T00:00:00Z</time>
      </trkpt>
      <trkpt lat="51.5614786009229" lon="6.95479090113507">
        <ele>0</ele>
        <time>0001-01-01T00:00:00Z</time>
      </trkpt>
      <trkpt lat="51.5610527416823" lon="6.95455655343075">
        <ele>0</ele>
        <time>0001-01-01T00:00:00Z</time>
      </trkpt>
      <trkpt lat="51.5610415348063" lon="6.95468274065615">
        <ele>0</ele>
        <time>0001-01-01T00:00:00Z</time>
      </trkpt>
    </trkseg>
    <trkseg>
      <trkpt lat="51.565905059482" lon="6.97064542466916">
        <ele>0</ele>
        <time>0001-01-01T00:00:00Z</time>
      </trkpt>
      <trkpt lat="51.5653951982397" lon="6.97093385261293">
        <ele>0</ele>
        <time>0001-01-01T00:00:00Z</time>
      </trkpt>
      <trkpt lat="51.5646724181101" lon="6.97133044103562">
        <ele>0</ele>
        <time>0001-01-01T00:00:00Z</time>
      </trkpt>
      <trkpt lat="51.5643474434548" lon="6.97151972187372">
        <ele>0</ele>
        <time>0001-01-01T00:00:00Z</time>
      </trkpt>
      <trkpt lat="51.5638431678399" lon="6.971790123071">
        <ele>0</ele>
        <time>0001-01-01T00:00:00Z</time>
      </trkpt>
      <trkpt lat="51.5635293935237" lon="6.9719794039091">
        <ele>0</ele>
        <time>0001-01-01T00:00:00Z</time>
      </trkpt>
      <trkpt lat="51.5634173307432" lon="6.9720424975218">
        <ele>0</ele>
        <time>0001-01-01T00:00:00Z</time>
      </trkpt>
      <trkpt lat="51.5633444897877" lon="6.97205151089504">
        <ele>0</ele>
        <time>0001-01-01T00:00:00Z</time>
      </trkpt>
      <trkpt lat="51.5627897740685" lon="6.97207855101477">
        <ele>0</ele>
        <time>0001-01-01T00:00:00Z</time>
      </trkpt>
      <trkpt lat="51.5622294482904" lon="6.97209657776126">
        <ele>0</ele>
        <time>0001-01-01T00:00:00Z</time>
      </trkpt>
      <trkpt lat="51.562128588917" lon="6.97199743065558">
        <ele>0</ele>
        <time>0001-01-01T00:00:00Z</time>
      </trkpt>
      <trkpt lat="51.5620725558352" lon="6.9718532166837">
        <ele>0</ele>
        <time>0001-01-01T00:00:00Z</time>
      </trkpt>
      <trkpt lat="51.5620109193654" lon="6.9716639358456">
        <ele>0</ele>
        <time>0001-01-01T00:00:00Z</time>
      </trkpt>
      <trkpt lat="51.5619548861386" lon="6.97155577536669">
        <ele>0</ele>
        <time>0001-01-01T00:00:00Z</time>
      </trkpt>
      <trkpt lat="51.5618484228174" lon="6.97150169512723">
        <ele>0</ele>
        <time>0001-01-01T00:00:00Z</time>
      </trkpt>
      <trkpt lat="51.5615290313583" lon="6.97151070850047">
        <ele>0</ele>
        <time>0001-01-01T00:00:00Z</time>
      </trkpt>
      <trkpt lat="51.5610079141618" lon="6.97148366838074">
        <ele>0</ele>
        <time>0001-01-01T00:00:00Z</time>
      </trkpt>
      <trkpt lat="51.5604251523745" lon="6.97146564163426">
        <ele>0</ele>
        <time>0001-01-01T00:00:00Z</time>
      </trkpt>
      <trkpt lat="51.5599096261068" lon="6.9714746550075">
        <ele>0</ele>
        <time>0001-01-01T00:00:00Z</time>
      </trkpt>
      <trkpt lat="51.5595790137943" lon="6.97146564163426">
        <ele>0</ele>
        <time>0001-01-01T00:00:00Z</time>
      </trkpt>
      <trkpt lat="51.5592147771081" lon="6.97146564163426">
        <ele>0</ele>
        <time>0001-01-01T00:00:00Z</time>
      </trkpt>
      <trkpt lat="51.5591083073719" lon="6.97145662826102">
        <ele>0</ele>
        <time>0001-01-01T00:00:00Z</time>
      </trkpt>
      <trkpt lat="51.5590354595141" lon="6.97143860151453">
        <ele>0</ele>
        <time>0001-01-01T00:00:00Z</time>
      </trkpt>
      <trkpt lat="51.5589514041485" lon="6.97136649452859">
        <ele>0</ele>
        <time>0001-01-01T00:00:00Z</time>
      </trkpt>
      <trkpt lat="51.5589065745566" lon="6.97125833404967">
        <ele>0</ele>
        <time>0001-01-01T00:00:00Z</time>
      </trkpt>
      <trkpt lat="51.5588897634483" lon="6.97102398634536">
        <ele>0</ele>
        <time>0001-01-01T00:00:00Z</time>
      </trkpt>
      <trkpt lat="51.5588897634483" lon="6.97088878574672">
        <ele>0</ele>
        <time>0001-01-01T00:00:00Z</time>
      </trkpt>
      <trkpt lat="51.5588449337957" lon="6.97077161189456">
        <ele>0</ele>
        <time>0001-01-01T00:00:00Z</time>
      </trkpt>
      <trkpt lat="51.5587216520232" lon="6.97071753165511">
        <ele>0</ele>
        <time>0001-01-01T00:00:00Z</time>
      </trkpt>
      <trkpt lat="51.5585535399767" lon="6.97072654502835">
        <ele>0</ele>
        <time>0001-01-01T00:00:00Z</time>
      </trkpt>
      <trkpt lat="51.5580716153327" lon="6.97073555840159">
        <ele>0</ele>
        <time>0001-01-01T00:00:00Z</time>
      </trkpt>
      <trkpt lat="51.5576177048934" lon="6.97073555840159">
        <ele>0</ele>
        <time>0001-01-01T00:00:00Z</time>
      </trkpt>
      <trkpt lat="51.5574327771194" lon="6.97075358514808">
        <ele>0</ele>
        <time>0001-01-01T00:00:00Z</time>
      </trkpt>
      <trkpt lat="51.5571413742525" lon="6.97072654502835">
        <ele>0</ele>
        <time>0001-01-01T00:00:00Z</time>
      </trkpt>
      <trkpt lat="51.5567490982142" lon="6.97067246478889">
        <ele>0</ele>
        <time>0001-01-01T00:00:00Z</time>
      </trkpt>
      <trkpt lat="51.5563400067418" lon="6.97065443804241">
        <ele>0</ele>
        <time>0001-01-01T00:00:00Z</time>
      </trkpt>
      <trkpt lat="51.5560485968735" lon="6.97065443804241">
        <ele>0</ele>
        <time>0001-01-01T00:00:00Z</time>
      </trkpt>
      <trkpt lat="51.5557683933164" lon="6.97066345141565">
        <ele>0</ele>
        <time>0001-01-01T00:00:00Z</time>
      </trkpt>
      <trkpt lat="51.5556899360111" lon="6.97029390311269">
        <ele>0</ele>
        <time>0001-01-01T00:00:00Z</time>
      </trkpt>
      <trkpt lat="51.555589062134" lon="6.9698522478238">
        <ele>0</ele>
        <time>0001-01-01T00:00:00Z</time>
      </trkpt>
      <trkpt lat="51.5553817095729" lon="6.96901400411222">
        <ele>0</ele>
        <time>0001-01-01T00:00:00Z</time>
      </trkpt>
      <trkpt lat="51.5552303976479" lon="6.96831096099928">
        <ele>0</ele>
        <time>0001-01-01T00:00:00Z</time>
      </trkpt>
      <trkpt lat="51.5550174392712" lon="6.96749975740742">
        <ele>0</ele>
        <time>0001-01-01T00:00:00Z</time>
      </trkpt>
      <trkpt lat="51.5549333764796" lon="6.96718428934393">
        <ele>0</ele>
        <time>0001-01-01T00:00:00Z</time>
      </trkpt>
      <trkpt lat="51.5548437093306" lon="6.96686882128043">
        <ele>0</ele>
        <time>0001-01-01T00:00:00Z</time>
      </trkpt>
      <trkpt lat="51.5547932714817" lon="6.96666151369584">
        <ele>0</ele>
        <time>0001-01-01T00:00:00Z</time>
      </trkpt>
      <trkpt lat="51.5547820630632" lon="6.96648124623099">
        <ele>0</ele>
        <time>0001-01-01T00:00:00Z</time>
      </trkpt>
      <trkpt lat="51.5548268967205" lon="6.96629196539289">
        <ele>0</ele>
        <time>0001-01-01T00:00:00Z</time>
      </trkpt>
      <trkpt lat="51.5547148124943" lon="6.966147751421">
        <ele>0</ele>
        <time>0001-01-01T00:00:00Z</time>
      </trkpt>
      <trkpt lat="51.5546699787265" lon="6.9660215641956">
        <ele>0</ele>
        <time>0001-01-01T00:00:00Z</time>
      </trkpt>
      <trkpt lat="51.5546139364546" lon="6.96577820311805">
        <ele>0</ele>
        <time>0001-01-01T00:00:00Z</time>
      </trkpt>
      <trkpt lat="51.5545859152928" lon="6.96552582866725">
        <ele>0</ele>
        <time>0001-01-01T00:00:00Z</time>
      </trkpt>
      <trkpt lat="51.5545803110583" lon="6.96507516000511">
        <ele>0</ele>
        <time>0001-01-01T00:00:00Z</time>
      </trkpt>
      <trkpt lat="51.5545971237596" lon="6.96476870531485">
        <ele>0</ele>
        <time>0001-01-01T00:00:00Z</time>
      </trkpt>
      <trkpt lat="51.5546083322236" lon="6.96449830411757">
        <ele>0</ele>
        <time>0001-01-01T00:00:00Z</time>
      </trkpt>
      <trkpt lat="51.554647561826" lon="6.96401158196246">
        <ele>0</ele>
        <time>0001-01-01T00:00:00Z</time>
      </trkpt>
      <trkpt lat="51.5546643745024" lon="6.9636420336595">
        <ele>0</ele>
        <time>0001-01-01T00:00:00Z</time>
      </trkpt>
      <trkpt lat="51.5546755829499" lon="6.96348880631438">
        <ele>0</ele>
        <time>0001-01-01T00:00:00Z</time>
      </trkpt>
      <trkpt lat="51.5547204167122" lon="6.96336261908898">
        <ele>0</ele>
        <time>0001-01-01T00:00:00Z</time>
      </trkpt>
      <trkpt lat="51.5547932714817" lon="6.96328149872979">
        <ele>0</ele>
        <time>0001-01-01T00:00:00Z</time>
      </trkpt>
      <trkpt lat="51.5549109597089" lon="6.96324544523682">
        <ele>0</ele>
        <time>0001-01-01T00:00:00Z</time>
      </trkpt>
      <trkpt lat="51.5551015019074" lon="6.96323643186358">
        <ele>0</ele>
        <time>0001-01-01T00:00:00Z</time>
      </trkpt>
      <trkpt lat="51.5552472101089" lon="6.96324544523682">
        <ele>0</ele>
        <time>0001-01-01T00:00:00Z</time>
      </trkpt>
      <trkpt lat="51.5554265426391" lon="6.96326347198331">
        <ele>0</ele>
        <time>0001-01-01T00:00:00Z</time>
      </trkpt>
      <trkpt lat="51.5556002703536" lon="6.96336261908898">
        <ele>0</ele>
        <time>0001-01-01T00:00:00Z</time>
      </trkpt>
      <trkpt lat="51.5557515810481" lon="6.96349781968762">
        <ele>0</ele>
        <time>0001-01-01T00:00:00Z</time>
      </trkpt>
      <trkpt lat="51.5558636627195" lon="6.96362400691302">
        <ele>0</ele>
        <time>0001-01-01T00:00:00Z</time>
      </trkpt>
      <trkpt lat="51.5559421197252" lon="6.96366907377923">
        <ele>0</ele>
        <time>0001-01-01T00:00:00Z</time>
      </trkpt>
      <trkpt lat="51.5559813481773" lon="6.96354288655383">
        <ele>0</ele>
        <time>0001-01-01T00:00:00Z</time>
      </trkpt>
      <trkpt lat="51.5560654090321" lon="6.96290293705359">
        <ele>0</ele>
        <time>0001-01-01T00:00:00Z</time>
      </trkpt>
      <trkpt lat="51.5561046373778" lon="6.96235312128578">
        <ele>0</ele>
        <time>0001-01-01T00:00:00Z</time>
      </trkpt>
      <trkpt lat="51.5561158454704" lon="6.96169514503906">
        <ele>0</ele>
        <time>0001-01-01T00:00:00Z</time>
      </trkpt>
      <trkpt lat="51.5561550737726" lon="6.96123546300367">
        <ele>0</ele>
        <time>0001-01-01T00:00:00Z</time>
      </trkpt>
      <trkpt lat="51.5562839665275" lon="6.96085690132748">
        <ele>0</ele>
        <time>0001-01-01T00:00:00Z</time>
      </trkpt>
      <trkpt lat="51.5564632949701" lon="6.96033412567939">
        <ele>0</ele>
        <time>0001-01-01T00:00:00Z</time>
      </trkpt>
      <trkpt lat="51.5567266823384" lon="6.9598293767778">
        <ele>0</ele>
        <time>0001-01-01T00:00:00Z</time>
      </trkpt>
      <trkpt lat="51.5568555734734" lon="6.95944180172836">
        <ele>0</ele>
        <time>0001-01-01T00:00:00Z</time>
      </trkpt>
      <trkpt lat="51.5569508405993" lon="6.95917140053107">
        <ele>0</ele>
        <time>0001-01-01T00:00:00Z</time>
      </trkpt>
      <trkpt lat="51.5571077507247" lon="6.95863961150975">
        <ele>0</ele>
        <time>0001-01-01T00:00:00Z</time>
      </trkpt>
      <trkpt lat="51.5572030173224" lon="6.95839625043219">
        <ele>0</ele>
        <time>0001-01-01T00:00:00Z</time>
      </trkpt>
      <trkpt lat="51.5572646603087" lon="6.95801768875599">
        <ele>0</ele>
        <time>0001-01-01T00:00:00Z</time>
      </trkpt>
      <trkpt lat="51.5573206993146" lon="6.95774728755871">
        <ele>0</ele>
        <time>0001-01-01T00:00:00Z</time>
      </trkpt>
      <trkpt lat="51.5573823421414" lon="6.95753096660088">
        <ele>0</ele>
        <time>0001-01-01T00:00:00Z</time>
      </trkpt>
      <trkpt lat="51.5575336469075" lon="6.95726957877684">
        <ele>0</ele>
        <time>0001-01-01T00:00:00Z</time>
      </trkpt>
      <trkpt lat="51.5577465935034" lon="6.95706227119226">
        <ele>0</ele>
        <time>0001-01-01T00:00:00Z</time>
      </trkpt>
      <trkpt lat="51.5578362549297" lon="6.95689101710064">
        <ele>0</ele>
        <time>0001-01-01T00:00:00Z</time>
      </trkpt>
      <trkpt lat="51.5579035008834" lon="6.95654850891741">
        <ele>0</ele>
        <time>0001-01-01T00:00:00Z</time>
      </trkpt>
      <trkpt lat="51.557937123823" lon="6.95629613446662">
        <ele>0</ele>
        <time>0001-01-01T00:00:00Z</time>
      </trkpt>
      <trkpt lat="51.5579707467377" lon="6.95611586700176">
        <ele>0</ele>
        <time>0001-01-01T00:00:00Z</time>
      </trkpt>
      <trkpt lat="51.5580548039158" lon="6.95589954604393">
        <ele>0</ele>
        <time>0001-01-01T00:00:00Z</time>
      </trkpt>
      <trkpt lat="51.5581444647344" lon="6.95567421171286">
        <ele>0</ele>
        <time>0001-01-01T00:00:00Z</time>
      </trkpt>
      <trkpt lat="51.5583798235425" lon="6.95580941231151">
        <ele>0</ele>
        <time>0001-01-01T00:00:00Z</time>
      </trkpt>
      <trkpt lat="51.5587328594709" lon="6.95604376001582">
        <ele>0</ele>
        <time>0001-01-01T00:00:00Z</time>
      </trkpt>
      <trkpt lat="51.5587832929512" lon="6.95586349255096">
        <ele>0</ele>
        <time>0001-01-01T00:00:00Z</time>
      </trkpt>
      <trkpt lat="51.5588673486275" lon="6.95555703786071">
        <ele>0</ele>
        <time>0001-01-01T00:00:00Z</time>
      </trkpt>
      <trkpt lat="51.558912178258" lon="6.95532269015639">
        <ele>0</ele>
        <time>0001-01-01T00:00:00Z</time>
      </trkpt>
      <trkpt lat="51.5590354595141" lon="6.95479090113507">
        <ele>0</ele>
        <time>0001-01-01T00:00:00Z</time>
      </trkpt>
      <trkpt lat="51.5593828867104" lon="6.95504327558587">
        <ele>0</ele>
        <time>0001-01-01T00:00:00Z</time>
      </trkpt>
      <trkpt lat="51.5597471220502" lon="6.95529565003666">
        <ele>0</ele>
        <time>0001-01-01T00:00:00Z</time>
      </trkpt>
      <trkpt lat="51.5601281651295" lon="6.95555703786071">
        <ele>0</ele>
        <time>0001-01-01T00:00:00Z</time>
      </trkpt>
      <trkpt lat="51.5603803242354" lon="6.95567421171286">
        <ele>0</ele>
        <time>0001-01-01T00:00:00Z</time>
      </trkpt>
      <trkpt lat="51.5605764470178" lon="6.95572829195232">
        <ele>0</ele>
        <time>0001-01-01T00:00:00Z</time>
      </trkpt>
      <trkpt lat="51.5606661028652" lon="6.95573730532556">
        <ele>0</ele>
        <time>0001-01-01T00:00:00Z</time>
      </trkpt>
      <trkpt lat="51.5607221376801" lon="6.95573730532556">
        <ele>0</ele>
        <time>0001-01-01T00:00:00Z</time>
      </trkpt>
      <trkpt lat="51.5609014486236" lon="6.95572829195232">
        <ele>0</ele>
        <time>0001-01-01T00:00:00Z</time>
      </trkpt>
      <trkpt lat="51.5609518796991" lon="6.95536775702261">
        <ele>0</ele>
        <time>0001-01-01T00:00:00Z</time>
      </trkpt>
      <trkpt lat="51.5610415348063" lon="6.95468274065615">
        <ele>0</ele>
        <time>0001-01-01T00:00:00Z</time>
      </trkpt>
    </trkseg>
  </trk>
</gpx>